ECMWFFLT1_prec_pwat_000.txt.gz
Precipitable_Water
0.22 0.21 0.20 0.20 0.19 0.17 0.16 0.16 0.15 0.15 0.14 0.14 0.13 0.13 0.13 0.14 0.14 0.13 0.13 0.13 0.13 0.13 0.13 0.12 0.12 0.12 0.12 0.13 0.12 0.12 0.11 0.10 0.11 0.13 0.13 0.13 0.14 0.15 0.16 0.16 0.15 0.14 0.14 0.16 0.18 0.16 0.16 0.16 0.16 0.15 0.15 0.13 0.12 0.12 0.12 0.13 0.13 0.13 0.13 0.13 0.13 0.13 0.13
0.22 0.21 0.20 0.20 0.19 0.19 0.17 0.16 0.16 0.15 0.15 0.14 0.14 0.13 0.14 0.14 0.14 0.13 0.13 0.13 0.12 0.13 0.13 0.13 0.12 0.12 0.12 0.12 0.12 0.11 0.10 0.10 0.11 0.12 0.12 0.12 0.13 0.15 0.16 0.16 0.15 0.15 0.15 0.14 0.16 0.16 0.17 0.16 0.17 0.15 0.16 0.14 0.13 0.12 0.12 0.12 0.12 0.12 0.12 0.12 0.12 0.13 0.13
0.23 0.21 0.20 0.20 0.20 0.19 0.18 0.17 0.16 0.16 0.15 0.14 0.14 0.14 0.14 0.14 0.14 0.13 0.13 0.13 0.12 0.12 0.13 0.12 0.12 0.12 0.12 0.12 0.11 0.10 0.09 0.09 0.11 0.11 0.11 0.11 0.13 0.14 0.15 0.16 0.16 0.16 0.15 0.15 0.15 0.16 0.16 0.16 0.16 0.16 0.16 0.15 0.15 0.14 0.13 0.12 0.12 0.12 0.12 0.12 0.13 0.12 0.13
0.23 0.22 0.20 0.20 0.20 0.19 0.19 0.18 0.17 0.17 0.16 0.15 0.14 0.14 0.14 0.14 0.13 0.13 0.13 0.13 0.13 0.12 0.12 0.12 0.12 0.12 0.13 0.12 0.10 0.09 0.09 0.09 0.10 0.11 0.11 0.11 0.12 0.14 0.15 0.16 0.16 0.16 0.15 0.15 0.14 0.16 0.16 0.16 0.16 0.16 0.16 0.16 0.15 0.14 0.13 0.12 0.12 0.12 0.12 0.12 0.12 0.12 0.12
0.23 0.22 0.21 0.20 0.20 0.20 0.19 0.18 0.18 0.17 0.16 0.16 0.15 0.14 0.14 0.13 0.13 0.13 0.13 0.13 0.12 0.12 0.12 0.13 0.13 0.13 0.13 0.11 0.10 0.09 0.08 0.09 0.09 0.10 0.10 0.10 0.12 0.14 0.15 0.16 0.16 0.16 0.16 0.15 0.15 0.16 0.17 0.16 0.16 0.16 0.16 0.16 0.15 0.14 0.14 0.13 0.12 0.12 0.12 0.12 0.13 0.13 0.13
0.23 0.22 0.21 0.20 0.20 0.21 0.20 0.19 0.18 0.17 0.17 0.16 0.15 0.15 0.14 0.14 0.13 0.13 0.13 0.13 0.12 0.12 0.12 0.13 0.14 0.14 0.13 0.11 0.09 0.08 0.08 0.08 0.09 0.09 0.09 0.10 0.12 0.14 0.15 0.15 0.15 0.16 0.16 0.16 0.16 0.16 0.16 0.17 0.16 0.16 0.16 0.16 0.15 0.14 0.13 0.12 0.12 0.12 0.12 0.12 0.12 0.12 0.13
0.24 0.23 0.22 0.21 0.21 0.21 0.21 0.20 0.18 0.17 0.17 0.16 0.16 0.15 0.14 0.13 0.13 0.13 0.12 0.12 0.12 0.13 0.14 0.15 0.15 0.14 0.12 0.10 0.09 0.08 0.08 0.08 0.08 0.09 0.09 0.11 0.12 0.13 0.14 0.14 0.15 0.16 0.16 0.16 0.16 0.17 0.17 0.16 0.17 0.16 0.15 0.15 0.15 0.14 0.14 0.12 0.11 0.10 0.11 0.12 0.11 0.11 0.13
0.24 0.24 0.23 0.22 0.22 0.22 0.22 0.20 0.19 0.18 0.18 0.17 0.16 0.15 0.14 0.13 0.13 0.12 0.11 0.12 0.13 0.14 0.14 0.14 0.14 0.13 0.11 0.09 0.08 0.08 0.08 0.08 0.09 0.09 0.10 0.10 0.11 0.12 0.13 0.13 0.14 0.15 0.16 0.16 0.16 0.17 0.16 0.17 0.16 0.16 0.16 0.15 0.14 0.13 0.12 0.12 0.11 0.09 0.10 0.11 0.12 0.12 0.12
0.26 0.25 0.24 0.24 0.23 0.22 0.22 0.21 0.19 0.18 0.18 0.17 0.16 0.15 0.14 0.13 0.12 0.12 0.13 0.13 0.13 0.14 0.14 0.14 0.13 0.11 0.09 0.09 0.09 0.10 0.10 0.11 0.11 0.10 0.09 0.10 0.11 0.12 0.13 0.13 0.14 0.15 0.16 0.16 0.16 0.16 0.17 0.16 0.16 0.16 0.15 0.14 0.13 0.12 0.11 0.11 0.11 0.10 0.11 0.11 0.11 0.12 0.13
0.27 0.26 0.25 0.25 0.24 0.23 0.22 0.21 0.19 0.19 0.19 0.18 0.17 0.15 0.14 0.13 0.13 0.13 0.14 0.13 0.13 0.14 0.14 0.13 0.12 0.10 0.10 0.09 0.09 0.09 0.09 0.10 0.09 0.09 0.10 0.11 0.11 0.12 0.12 0.13 0.14 0.15 0.15 0.15 0.15 0.16 0.16 0.15 0.15 0.15 0.14 0.14 0.13 0.13 0.12 0.11 0.11 0.10 0.10 0.10 0.11 0.12 0.12
0.27 0.26 0.26 0.26 0.24 0.24 0.22 0.21 0.20 0.20 0.20 0.19 0.19 0.17 0.15 0.14 0.13 0.14 0.14 0.14 0.14 0.13 0.13 0.12 0.11 0.10 0.09 0.09 0.08 0.08 0.08 0.08 0.08 0.09 0.09 0.11 0.12 0.13 0.13 0.13 0.13 0.14 0.15 0.15 0.15 0.16 0.16 0.16 0.15 0.15 0.15 0.14 0.14 0.14 0.12 0.11 0.11 0.10 0.10 0.11 0.10 0.10 0.11
0.28 0.27 0.26 0.26 0.24 0.24 0.23 0.22 0.22 0.21 0.21 0.20 0.19 0.18 0.16 0.15 0.14 0.14 0.14 0.14 0.14 0.14 0.13 0.11 0.10 0.10 0.09 0.09 0.08 0.08 0.08 0.08 0.07 0.07 0.09 0.10 0.11 0.13 0.14 0.14 0.14 0.14 0.15 0.16 0.16 0.16 0.16 0.16 0.16 0.16 0.16 0.15 0.15 0.14 0.13 0.12 0.11 0.11 0.11 0.10 0.10 0.10 0.10
0.29 0.27 0.27 0.26 0.24 0.24 0.23 0.22 0.22 0.22 0.22 0.21 0.20 0.19 0.17 0.16 0.15 0.15 0.14 0.14 0.14 0.13 0.12 0.11 0.10 0.10 0.10 0.09 0.09 0.09 0.08 0.07 0.06 0.07 0.09 0.10 0.11 0.12 0.12 0.12 0.14 0.16 0.17 0.17 0.17 0.17 0.17 0.17 0.16 0.16 0.15 0.16 0.15 0.15 0.14 0.12 0.10 0.10 0.10 0.10 0.10 0.11 0.11
0.30 0.29 0.28 0.26 0.24 0.24 0.24 0.23 0.23 0.22 0.21 0.21 0.21 0.19 0.17 0.16 0.16 0.15 0.14 0.14 0.14 0.13 0.12 0.11 0.10 0.10 0.09 0.09 0.09 0.08 0.08 0.07 0.06 0.08 0.09 0.10 0.10 0.10 0.11 0.11 0.12 0.14 0.17 0.18 0.18 0.17 0.16 0.18 0.17 0.16 0.16 0.16 0.16 0.15 0.13 0.13 0.12 0.11 0.11 0.11 0.11 0.12 0.13
0.30 0.29 0.28 0.26 0.25 0.25 0.25 0.25 0.24 0.22 0.22 0.22 0.21 0.19 0.17 0.16 0.15 0.15 0.14 0.14 0.14 0.13 0.12 0.11 0.11 0.10 0.09 0.09 0.08 0.08 0.08 0.07 0.07 0.08 0.09 0.09 0.09 0.09 0.10 0.10 0.11 0.14 0.16 0.17 0.17 0.17 0.17 0.18 0.18 0.17 0.17 0.17 0.16 0.16 0.15 0.14 0.12 0.11 0.11 0.11 0.12 0.13 0.14
0.31 0.30 0.29 0.26 0.25 0.25 0.26 0.26 0.25 0.23 0.22 0.22 0.21 0.20 0.17 0.16 0.15 0.14 0.14 0.14 0.13 0.13 0.12 0.12 0.11 0.10 0.10 0.09 0.08 0.08 0.08 0.08 0.09 0.10 0.09 0.08 0.08 0.08 0.09 0.10 0.11 0.14 0.17 0.18 0.18 0.17 0.18 0.19 0.19 0.19 0.18 0.18 0.18 0.17 0.16 0.15 0.14 0.12 0.11 0.11 0.10 0.10 0.12
0.31 0.30 0.29 0.26 0.26 0.26 0.27 0.26 0.25 0.24 0.23 0.23 0.22 0.20 0.17 0.15 0.14 0.14 0.14 0.13 0.13 0.13 0.12 0.11 0.11 0.10 0.10 0.09 0.08 0.08 0.08 0.09 0.10 0.10 0.08 0.07 0.07 0.08 0.08 0.09 0.10 0.12 0.15 0.17 0.17 0.18 0.19 0.20 0.19 0.19 0.19 0.18 0.18 0.17 0.16 0.15 0.13 0.11 0.12 0.10 0.09 0.10 0.11
0.31 0.30 0.29 0.27 0.25 0.27 0.27 0.27 0.25 0.24 0.23 0.23 0.22 0.20 0.17 0.15 0.14 0.14 0.14 0.14 0.13 0.13 0.12 0.11 0.11 0.11 0.10 0.09 0.08 0.08 0.09 0.10 0.10 0.09 0.08 0.07 0.07 0.07 0.08 0.08 0.10 0.11 0.12 0.14 0.16 0.17 0.18 0.19 0.19 0.19 0.19 0.18 0.18 0.17 0.16 0.13 0.11 0.11 0.11 0.10 0.10 0.10 0.10
0.31 0.29 0.28 0.27 0.26 0.27 0.28 0.27 0.25 0.25 0.24 0.23 0.22 0.21 0.18 0.16 0.14 0.14 0.13 0.13 0.13 0.12 0.12 0.11 0.11 0.10 0.09 0.09 0.09 0.09 0.10 0.10 0.10 0.09 0.07 0.07 0.07 0.07 0.07 0.08 0.10 0.10 0.10 0.11 0.13 0.16 0.17 0.19 0.19 0.19 0.19 0.18 0.18 0.17 0.16 0.14 0.13 0.12 0.11 0.10 0.10 0.11 0.11
0.31 0.28 0.27 0.27 0.26 0.27 0.28 0.27 0.25 0.25 0.24 0.23 0.22 0.21 0.18 0.16 0.15 0.14 0.13 0.13 0.12 0.11 0.11 0.11 0.10 0.09 0.09 0.09 0.09 0.09 0.10 0.10 0.10 0.09 0.08 0.07 0.07 0.07 0.08 0.10 0.10 0.10 0.10 0.10 0.11 0.14 0.16 0.18 0.19 0.19 0.19 0.18 0.18 0.17 0.16 0.15 0.13 0.13 0.12 0.11 0.11 0.10 0.10
0.30 0.28 0.27 0.26 0.26 0.27 0.27 0.27 0.26 0.25 0.24 0.23 0.22 0.21 0.19 0.17 0.15 0.15 0.14 0.13 0.12 0.12 0.11 0.10 0.10 0.09 0.09 0.09 0.09 0.10 0.10 0.10 0.09 0.09 0.08 0.07 0.07 0.08 0.10 0.10 0.09 0.08 0.09 0.09 0.10 0.12 0.15 0.17 0.18 0.19 0.19 0.18 0.18 0.17 0.17 0.16 0.14 0.13 0.12 0.11 0.11 0.10 0.10
0.27 0.26 0.25 0.25 0.26 0.27 0.27 0.27 0.27 0.26 0.24 0.23 0.23 0.21 0.19 0.17 0.16 0.15 0.14 0.13 0.12 0.12 0.11 0.10 0.09 0.09 0.08 0.09 0.10 0.10 0.10 0.09 0.09 0.08 0.07 0.08 0.09 0.09 0.09 0.08 0.08 0.08 0.08 0.09 0.09 0.11 0.13 0.16 0.18 0.18 0.18 0.18 0.18 0.18 0.17 0.17 0.16 0.13 0.12 0.12 0.11 0.11 0.10
0.25 0.24 0.24 0.24 0.24 0.26 0.26 0.27 0.28 0.26 0.24 0.24 0.23 0.21 0.19 0.18 0.17 0.16 0.16 0.14 0.12 0.11 0.11 0.10 0.09 0.09 0.09 0.09 0.10 0.10 0.10 0.09 0.08 0.08 0.08 0.08 0.08 0.08 0.08 0.08 0.07 0.08 0.08 0.08 0.09 0.10 0.12 0.15 0.18 0.18 0.18 0.19 0.19 0.19 0.18 0.18 0.17 0.15 0.12 0.11 0.11 0.11 0.11
0.24 0.23 0.23 0.23 0.24 0.25 0.26 0.27 0.27 0.26 0.25 0.24 0.23 0.21 0.19 0.18 0.18 0.17 0.16 0.14 0.12 0.12 0.11 0.10 0.09 0.09 0.10 0.11 0.10 0.10 0.09 0.08 0.08 0.08 0.08 0.07 0.07 0.07 0.07 0.07 0.07 0.07 0.08 0.08 0.08 0.09 0.11 0.14 0.17 0.18 0.19 0.19 0.19 0.19 0.19 0.19 0.18 0.17 0.16 0.14 0.14 0.13 0.13
0.22 0.22 0.22 0.23 0.23 0.24 0.25 0.26 0.26 0.26 0.26 0.25 0.23 0.21 0.20 0.18 0.18 0.17 0.16 0.14 0.13 0.12 0.11 0.10 0.11 0.11 0.11 0.10 0.10 0.09 0.08 0.07 0.07 0.08 0.07 0.07 0.06 0.06 0.06 0.07 0.07 0.07 0.07 0.08 0.08 0.08 0.10 0.12 0.16 0.18 0.18 0.19 0.20 0.20 0.20 0.20 0.19 0.19 0.19 0.18 0.17 0.16 0.16
0.22 0.22 0.22 0.22 0.23 0.24 0.25 0.25 0.25 0.25 0.25 0.26 0.24 0.22 0.20 0.18 0.18 0.17 0.16 0.15 0.13 0.12 0.12 0.12 0.11 0.10 0.10 0.10 0.09 0.09 0.08 0.07 0.07 0.07 0.07 0.06 0.06 0.06 0.06 0.06 0.07 0.07 0.07 0.07 0.08 0.08 0.09 0.11 0.14 0.17 0.19 0.19 0.19 0.19 0.20 0.20 0.20 0.20 0.20 0.19 0.18 0.18 0.18
0.22 0.22 0.22 0.22 0.23 0.23 0.24 0.24 0.25 0.25 0.25 0.25 0.24 0.21 0.20 0.18 0.18 0.17 0.16 0.14 0.13 0.12 0.11 0.10 0.10 0.10 0.10 0.09 0.09 0.08 0.07 0.07 0.07 0.06 0.06 0.06 0.06 0.06 0.06 0.06 0.07 0.07 0.07 0.07 0.08 0.08 0.09 0.10 0.13 0.15 0.18 0.19 0.19 0.19 0.20 0.20 0.20 0.20 0.20 0.20 0.20 0.19 0.18
0.23 0.23 0.23 0.23 0.23 0.23 0.23 0.24 0.25 0.25 0.25 0.25 0.23 0.21 0.19 0.18 0.16 0.16 0.15 0.13 0.12 0.12 0.11 0.10 0.10 0.09 0.09 0.09 0.08 0.07 0.07 0.06 0.06 0.06 0.06 0.06 0.06 0.06 0.06 0.06 0.07 0.07 0.07 0.07 0.08 0.08 0.09 0.09 0.11 0.13 0.15 0.18 0.19 0.19 0.20 0.20 0.20 0.20 0.20 0.21 0.21 0.20 0.20
0.25 0.25 0.25 0.24 0.23 0.23 0.23 0.24 0.25 0.25 0.26 0.25 0.23 0.21 0.19 0.17 0.15 0.15 0.14 0.14 0.13 0.12 0.11 0.10 0.09 0.09 0.08 0.08 0.07 0.07 0.07 0.06 0.06 0.06 0.06 0.06 0.06 0.06 0.06 0.06 0.05 0.06 0.06 0.07 0.07 0.08 0.08 0.08 0.09 0.10 0.12 0.15 0.17 0.19 0.20 0.20 0.20 0.21 0.20 0.20 0.21 0.21 0.21
0.27 0.27 0.26 0.25 0.24 0.24 0.24 0.24 0.25 0.26 0.26 0.25 0.24 0.22 0.20 0.18 0.16 0.15 0.15 0.14 0.14 0.12 0.10 0.10 0.09 0.08 0.08 0.08 0.07 0.07 0.06 0.06 0.06 0.05 0.05 0.05 0.06 0.06 0.06 0.05 0.05 0.05 0.06 0.07 0.07 0.08 0.08 0.08 0.08 0.09 0.10 0.12 0.14 0.16 0.18 0.19 0.20 0.20 0.21 0.21 0.21 0.21 0.21
0.29 0.28 0.27 0.26 0.25 0.25 0.25 0.25 0.26 0.25 0.25 0.25 0.24 0.23 0.21 0.19 0.17 0.16 0.16 0.15 0.13 0.12 0.10 0.09 0.09 0.08 0.08 0.08 0.08 0.07 0.06 0.06 0.06 0.05 0.05 0.05 0.05 0.05 0.05 0.05 0.05 0.05 0.05 0.06 0.06 0.07 0.07 0.08 0.08 0.08 0.09 0.10 0.11 0.13 0.15 0.17 0.19 0.20 0.21 0.21 0.21 0.22 0.22
0.29 0.28 0.28 0.27 0.26 0.25 0.25 0.25 0.25 0.25 0.26 0.25 0.25 0.24 0.22 0.20 0.18 0.17 0.16 0.15 0.13 0.11 0.10 0.09 0.09 0.08 0.08 0.08 0.07 0.07 0.07 0.06 0.06 0.06 0.06 0.05 0.05 0.05 0.05 0.05 0.05 0.06 0.05 0.05 0.06 0.06 0.07 0.07 0.07 0.08 0.08 0.08 0.09 0.11 0.13 0.15 0.16 0.18 0.19 0.20 0.21 0.21 0.21
0.29 0.28 0.28 0.28 0.27 0.26 0.25 0.25 0.25 0.26 0.26 0.26 0.26 0.24 0.22 0.20 0.18 0.17 0.16 0.15 0.13 0.11 0.10 0.09 0.09 0.08 0.08 0.08 0.08 0.07 0.07 0.07 0.07 0.06 0.06 0.06 0.06 0.06 0.06 0.06 0.06 0.06 0.06 0.05 0.05 0.06 0.06 0.06 0.07 0.07 0.07 0.08 0.08 0.09 0.10 0.12 0.14 0.15 0.17 0.18 0.19 0.20 0.21
0.29 0.28 0.28 0.27 0.27 0.26 0.26 0.25 0.25 0.26 0.26 0.26 0.26 0.24 0.22 0.20 0.18 0.17 0.16 0.14 0.12 0.11 0.10 0.09 0.09 0.08 0.08 0.08 0.08 0.08 0.08 0.07 0.07 0.07 0.07 0.07 0.07 0.06 0.07 0.07 0.07 0.06 0.06 0.06 0.06 0.05 0.06 0.06 0.06 0.07 0.07 0.07 0.07 0.08 0.09 0.10 0.11 0.13 0.14 0.16 0.17 0.18 0.19
0.28 0.28 0.28 0.27 0.27 0.26 0.26 0.26 0.26 0.26 0.26 0.26 0.26 0.25 0.23 0.20 0.17 0.15 0.15 0.14 0.12 0.11 0.10 0.09 0.09 0.09 0.08 0.08 0.08 0.08 0.08 0.08 0.08 0.07 0.07 0.07 0.07 0.07 0.07 0.07 0.07 0.07 0.06 0.06 0.06 0.06 0.06 0.06 0.06 0.07 0.07 0.07 0.07 0.07 0.08 0.08 0.09 0.11 0.12 0.13 0.15 0.16 0.17
0.28 0.28 0.28 0.28 0.27 0.27 0.26 0.26 0.26 0.26 0.26 0.26 0.26 0.25 0.23 0.18 0.15 0.14 0.14 0.13 0.12 0.12 0.11 0.10 0.09 0.09 0.09 0.09 0.08 0.08 0.08 0.08 0.08 0.08 0.08 0.08 0.08 0.07 0.07 0.07 0.07 0.07 0.07 0.06 0.06 0.06 0.06 0.06 0.06 0.06 0.07 0.07 0.07 0.07 0.07 0.08 0.08 0.09 0.10 0.11 0.12 0.14 0.15

ECMWFFLT1_prec_pwat_006.txt.gz
Precipitable_Water
0.42 0.43 0.45 0.46 0.46 0.44 0.42 0.39 0.34 0.31 0.29 0.27 0.25 0.22 0.20 0.20 0.20 0.19 0.19 0.18 0.17 0.17 0.17 0.17 0.16 0.15 0.15 0.16 0.15 0.15 0.15 0.15 0.15 0.15 0.14 0.14 0.13 0.12 0.12 0.11 0.10 0.09 0.08 0.08 0.09 0.07 0.07 0.08 0.09 0.09 0.10 0.11 0.13 0.14 0.15 0.17 0.17 0.18 0.19 0.18 0.18 0.17 0.16
0.42 0.43 0.44 0.45 0.44 0.43 0.42 0.39 0.35 0.32 0.30 0.28 0.25 0.22 0.21 0.20 0.20 0.20 0.19 0.18 0.17 0.17 0.17 0.17 0.16 0.16 0.16 0.17 0.16 0.16 0.16 0.15 0.15 0.14 0.13 0.13 0.12 0.12 0.11 0.11 0.10 0.09 0.08 0.07 0.07 0.07 0.07 0.07 0.08 0.08 0.10 0.11 0.12 0.14 0.15 0.16 0.17 0.18 0.19 0.19 0.18 0.17 0.16
0.43 0.43 0.43 0.43 0.44 0.43 0.41 0.39 0.36 0.33 0.30 0.28 0.25 0.23 0.21 0.20 0.20 0.20 0.19 0.19 0.18 0.17 0.18 0.17 0.17 0.16 0.17 0.17 0.17 0.16 0.15 0.15 0.14 0.14 0.13 0.13 0.13 0.12 0.11 0.12 0.11 0.10 0.08 0.07 0.06 0.07 0.07 0.07 0.08 0.09 0.09 0.11 0.13 0.14 0.15 0.15 0.16 0.17 0.18 0.19 0.18 0.17 0.17
0.44 0.43 0.43 0.43 0.43 0.42 0.41 0.39 0.36 0.33 0.31 0.28 0.26 0.23 0.22 0.21 0.21 0.20 0.20 0.20 0.19 0.18 0.18 0.18 0.17 0.17 0.17 0.17 0.16 0.16 0.15 0.15 0.15 0.14 0.13 0.13 0.13 0.13 0.12 0.12 0.12 0.10 0.09 0.07 0.07 0.06 0.07 0.07 0.07 0.08 0.10 0.12 0.13 0.14 0.15 0.16 0.16 0.17 0.17 0.17 0.17 0.17 0.16
0.42 0.42 0.42 0.42 0.42 0.42 0.41 0.39 0.37 0.33 0.31 0.28 0.26 0.24 0.23 0.22 0.21 0.21 0.21 0.21 0.19 0.19 0.19 0.18 0.17 0.17 0.17 0.17 0.16 0.16 0.16 0.15 0.14 0.14 0.14 0.13 0.12 0.12 0.12 0.12 0.11 0.09 0.09 0.08 0.07 0.07 0.07 0.08 0.08 0.09 0.10 0.12 0.12 0.13 0.14 0.14 0.15 0.16 0.16 0.17 0.17 0.17 0.17
0.40 0.41 0.40 0.41 0.41 0.40 0.40 0.39 0.37 0.34 0.31 0.28 0.26 0.25 0.24 0.23 0.22 0.23 0.23 0.21 0.21 0.20 0.19 0.19 0.18 0.17 0.17 0.17 0.16 0.16 0.16 0.15 0.14 0.13 0.13 0.13 0.13 0.13 0.12 0.11 0.09 0.09 0.08 0.08 0.08 0.07 0.07 0.07 0.08 0.09 0.10 0.12 0.13 0.12 0.11 0.13 0.14 0.15 0.16 0.16 0.16 0.17 0.17
0.33 0.36 0.39 0.40 0.40 0.41 0.40 0.39 0.37 0.34 0.31 0.28 0.26 0.25 0.25 0.24 0.24 0.25 0.24 0.22 0.21 0.21 0.20 0.20 0.19 0.18 0.17 0.17 0.17 0.16 0.16 0.15 0.13 0.13 0.14 0.14 0.13 0.12 0.11 0.10 0.09 0.09 0.09 0.08 0.08 0.07 0.08 0.08 0.09 0.10 0.10 0.12 0.12 0.12 0.12 0.12 0.12 0.13 0.15 0.16 0.16 0.16 0.17
0.30 0.32 0.35 0.38 0.39 0.39 0.40 0.39 0.38 0.35 0.32 0.30 0.28 0.26 0.25 0.25 0.25 0.24 0.23 0.22 0.22 0.21 0.21 0.20 0.19 0.18 0.17 0.17 0.16 0.16 0.16 0.14 0.14 0.15 0.14 0.14 0.12 0.11 0.11 0.11 0.10 0.09 0.09 0.08 0.07 0.07 0.07 0.08 0.09 0.10 0.11 0.11 0.11 0.11 0.11 0.12 0.12 0.12 0.13 0.15 0.16 0.16 0.15
0.29 0.30 0.32 0.34 0.38 0.38 0.38 0.38 0.37 0.35 0.33 0.30 0.28 0.27 0.26 0.26 0.25 0.24 0.23 0.22 0.22 0.22 0.21 0.20 0.19 0.18 0.17 0.17 0.16 0.16 0.16 0.16 0.17 0.16 0.14 0.14 0.14 0.13 0.12 0.11 0.10 0.09 0.08 0.08 0.08 0.07 0.08 0.09 0.09 0.09 0.09 0.09 0.09 0.10 0.10 0.11 0.13 0.13 0.14 0.15 0.15 0.16 0.17
0.29 0.29 0.30 0.32 0.35 0.38 0.39 0.37 0.37 0.36 0.34 0.32 0.30 0.28 0.27 0.26 0.26 0.25 0.23 0.22 0.22 0.21 0.21 0.20 0.20 0.18 0.18 0.17 0.16 0.17 0.18 0.18 0.18 0.18 0.17 0.15 0.14 0.13 0.12 0.11 0.10 0.09 0.09 0.08 0.07 0.07 0.08 0.08 0.08 0.09 0.09 0.09 0.09 0.10 0.11 0.11 0.12 0.12 0.14 0.15 0.15 0.15 0.17
0.29 0.29 0.28 0.29 0.32 0.34 0.37 0.37 0.37 0.36 0.34 0.33 0.31 0.29 0.28 0.27 0.27 0.25 0.23 0.22 0.22 0.21 0.21 0.21 0.20 0.18 0.17 0.16 0.17 0.18 0.18 0.18 0.17 0.16 0.15 0.14 0.13 0.13 0.12 0.11 0.10 0.09 0.09 0.08 0.08 0.08 0.09 0.08 0.08 0.09 0.09 0.09 0.09 0.10 0.11 0.11 0.13 0.14 0.14 0.15 0.14 0.14 0.16
0.29 0.29 0.29 0.28 0.28 0.31 0.33 0.35 0.36 0.36 0.35 0.34 0.32 0.32 0.30 0.28 0.27 0.26 0.23 0.22 0.22 0.23 0.22 0.20 0.19 0.18 0.17 0.16 0.17 0.17 0.17 0.16 0.15 0.14 0.13 0.13 0.13 0.12 0.12 0.12 0.11 0.10 0.09 0.09 0.08 0.08 0.08 0.08 0.08 0.08 0.09 0.09 0.10 0.10 0.11 0.13 0.14 0.15 0.15 0.15 0.15 0.15 0.14
0.30 0.30 0.29 0.28 0.27 0.28 0.30 0.32 0.35 0.35 0.35 0.34 0.33 0.33 0.32 0.30 0.28 0.26 0.23 0.23 0.24 0.23 0.22 0.20 0.18 0.17 0.17 0.18 0.18 0.17 0.16 0.15 0.14 0.13 0.13 0.12 0.12 0.11 0.11 0.10 0.10 0.10 0.10 0.11 0.10 0.08 0.08 0.07 0.08 0.08 0.09 0.10 0.10 0.12 0.12 0.13 0.14 0.15 0.16 0.16 0.15 0.14 0.14
0.30 0.31 0.29 0.28 0.27 0.27 0.28 0.30 0.34 0.35 0.35 0.34 0.33 0.33 0.33 0.32 0.29 0.27 0.25 0.24 0.24 0.23 0.21 0.20 0.18 0.17 0.17 0.17 0.16 0.16 0.16 0.14 0.13 0.12 0.11 0.10 0.10 0.10 0.09 0.10 0.10 0.10 0.11 0.10 0.09 0.08 0.07 0.08 0.09 0.09 0.10 0.11 0.12 0.12 0.13 0.14 0.15 0.16 0.16 0.15 0.14 0.15 0.15
0.30 0.31 0.30 0.29 0.28 0.27 0.27 0.29 0.33 0.35 0.35 0.34 0.34 0.33 0.33 0.32 0.31 0.28 0.26 0.26 0.25 0.24 0.23 0.21 0.19 0.18 0.17 0.16 0.16 0.16 0.15 0.14 0.13 0.12 0.11 0.10 0.10 0.10 0.10 0.10 0.10 0.10 0.10 0.09 0.09 0.09 0.09 0.10 0.11 0.11 0.12 0.12 0.13 0.14 0.15 0.16 0.16 0.17 0.17 0.16 0.16 0.15 0.14
0.31 0.31 0.31 0.30 0.28 0.27 0.27 0.29 0.32 0.34 0.35 0.34 0.34 0.33 0.33 0.32 0.31 0.28 0.26 0.26 0.27 0.26 0.24 0.21 0.19 0.18 0.17 0.16 0.16 0.15 0.15 0.14 0.14 0.12 0.11 0.11 0.10 0.10 0.10 0.10 0.11 0.11 0.10 0.10 0.10 0.10 0.11 0.11 0.11 0.11 0.11 0.12 0.14 0.15 0.16 0.17 0.18 0.18 0.17 0.15 0.14 0.13 0.12
0.32 0.31 0.31 0.30 0.28 0.27 0.27 0.29 0.32 0.34 0.34 0.34 0.34 0.33 0.32 0.31 0.30 0.29 0.27 0.27 0.28 0.26 0.23 0.21 0.20 0.18 0.17 0.16 0.15 0.15 0.15 0.14 0.14 0.13 0.12 0.12 0.11 0.10 0.10 0.10 0.10 0.10 0.09 0.10 0.10 0.10 0.10 0.10 0.10 0.10 0.11 0.12 0.14 0.14 0.17 0.18 0.17 0.16 0.16 0.14 0.13 0.11 0.09
0.31 0.32 0.31 0.30 0.29 0.28 0.27 0.28 0.31 0.32 0.33 0.33 0.33 0.32 0.31 0.30 0.29 0.28 0.27 0.27 0.26 0.25 0.23 0.22 0.20 0.18 0.17 0.16 0.16 0.16 0.14 0.14 0.14 0.13 0.12 0.11 0.11 0.10 0.09 0.09 0.09 0.09 0.09 0.09 0.09 0.08 0.08 0.08 0.08 0.09 0.10 0.11 0.13 0.15 0.18 0.18 0.16 0.17 0.16 0.14 0.12 0.10 0.08
0.32 0.32 0.31 0.31 0.30 0.29 0.28 0.28 0.29 0.31 0.32 0.32 0.32 0.32 0.31 0.30 0.28 0.27 0.26 0.25 0.24 0.24 0.23 0.21 0.19 0.18 0.17 0.17 0.16 0.16 0.15 0.14 0.14 0.12 0.12 0.12 0.11 0.10 0.09 0.08 0.09 0.09 0.08 0.07 0.07 0.06 0.06 0.07 0.08 0.08 0.09 0.10 0.13 0.16 0.19 0.18 0.18 0.17 0.16 0.14 0.12 0.09 0.08
0.32 0.31 0.31 0.31 0.30 0.29 0.29 0.28 0.28 0.28 0.29 0.30 0.31 0.31 0.30 0.29 0.27 0.25 0.24 0.24 0.24 0.23 0.22 0.21 0.18 0.17 0.17 0.17 0.16 0.15 0.14 0.13 0.13 0.13 0.14 0.13 0.11 0.09 0.08 0.10 0.09 0.09 0.08 0.07 0.06 0.06 0.06 0.07 0.08 0.08 0.09 0.11 0.13 0.16 0.18 0.19 0.18 0.17 0.16 0.14 0.12 0.09 0.08
0.33 0.31 0.30 0.30 0.30 0.30 0.29 0.29 0.29 0.29 0.29 0.28 0.29 0.29 0.29 0.28 0.27 0.26 0.24 0.24 0.23 0.23 0.21 0.19 0.18 0.17 0.16 0.16 0.15 0.14 0.14 0.13 0.14 0.15 0.13 0.11 0.10 0.09 0.10 0.10 0.09 0.08 0.07 0.06 0.06 0.06 0.07 0.07 0.08 0.08 0.09 0.11 0.13 0.16 0.18 0.18 0.18 0.18 0.17 0.15 0.12 0.09 0.08
0.32 0.31 0.30 0.29 0.29 0.29 0.29 0.29 0.29 0.29 0.29 0.29 0.28 0.28 0.27 0.27 0.27 0.26 0.25 0.24 0.23 0.23 0.21 0.18 0.17 0.16 0.16 0.15 0.15 0.14 0.13 0.14 0.14 0.13 0.12 0.10 0.12 0.11 0.10 0.09 0.08 0.07 0.06 0.06 0.06 0.06 0.06 0.07 0.07 0.07 0.08 0.10 0.13 0.16 0.18 0.18 0.18 0.18 0.17 0.17 0.14 0.10 0.09
0.32 0.31 0.30 0.29 0.28 0.28 0.28 0.28 0.29 0.29 0.28 0.29 0.29 0.28 0.27 0.27 0.27 0.27 0.26 0.25 0.24 0.22 0.20 0.19 0.17 0.17 0.16 0.15 0.14 0.14 0.15 0.14 0.13 0.12 0.11 0.12 0.11 0.10 0.09 0.08 0.07 0.07 0.06 0.06 0.06 0.06 0.06 0.06 0.07 0.07 0.08 0.10 0.12 0.16 0.18 0.18 0.19 0.18 0.18 0.17 0.15 0.12 0.11
0.31 0.31 0.30 0.29 0.28 0.28 0.27 0.26 0.27 0.28 0.29 0.28 0.28 0.29 0.28 0.27 0.28 0.28 0.27 0.26 0.24 0.23 0.21 0.18 0.17 0.16 0.16 0.14 0.15 0.15 0.14 0.12 0.12 0.12 0.12 0.11 0.10 0.09 0.08 0.07 0.07 0.07 0.06 0.06 0.05 0.05 0.05 0.06 0.06 0.07 0.08 0.09 0.12 0.15 0.17 0.18 0.19 0.18 0.18 0.18 0.17 0.14 0.12
0.31 0.30 0.30 0.29 0.29 0.28 0.27 0.26 0.26 0.27 0.28 0.28 0.28 0.28 0.28 0.27 0.27 0.28 0.28 0.26 0.25 0.24 0.21 0.19 0.18 0.17 0.16 0.16 0.15 0.13 0.12 0.11 0.11 0.11 0.11 0.10 0.09 0.08 0.08 0.07 0.07 0.06 0.06 0.05 0.05 0.05 0.05 0.05 0.06 0.07 0.08 0.09 0.12 0.15 0.17 0.18 0.19 0.19 0.19 0.19 0.18 0.17 0.13
0.30 0.30 0.29 0.29 0.29 0.28 0.27 0.27 0.26 0.26 0.27 0.28 0.28 0.28 0.28 0.28 0.28 0.28 0.28 0.26 0.25 0.23 0.21 0.20 0.18 0.17 0.16 0.15 0.13 0.11 0.11 0.10 0.10 0.11 0.10 0.09 0.09 0.08 0.07 0.07 0.07 0.06 0.06 0.05 0.05 0.05 0.04 0.05 0.05 0.06 0.07 0.09 0.11 0.14 0.16 0.18 0.18 0.18 0.18 0.18 0.18 0.17 0.16
0.30 0.29 0.29 0.29 0.29 0.28 0.27 0.26 0.25 0.25 0.26 0.27 0.27 0.27 0.27 0.27 0.28 0.28 0.27 0.26 0.25 0.24 0.21 0.19 0.18 0.16 0.15 0.13 0.13 0.12 0.11 0.10 0.10 0.09 0.09 0.09 0.08 0.08 0.08 0.07 0.07 0.06 0.06 0.05 0.05 0.05 0.05 0.05 0.05 0.06 0.07 0.08 0.10 0.13 0.16 0.17 0.18 0.18 0.18 0.18 0.18 0.17 0.17
0.29 0.28 0.29 0.29 0.29 0.27 0.26 0.27 0.26 0.25 0.25 0.25 0.26 0.27 0.26 0.26 0.26 0.27 0.26 0.25 0.24 0.23 0.20 0.18 0.17 0.15 0.14 0.12 0.11 0.10 0.10 0.09 0.09 0.09 0.09 0.08 0.08 0.08 0.08 0.08 0.08 0.07 0.06 0.06 0.06 0.05 0.05 0.05 0.05 0.05 0.06 0.07 0.09 0.11 0.14 0.17 0.18 0.17 0.18 0.18 0.18 0.17 0.17
0.30 0.30 0.30 0.29 0.28 0.26 0.26 0.26 0.26 0.26 0.26 0.26 0.26 0.26 0.26 0.25 0.25 0.26 0.25 0.25 0.24 0.21 0.19 0.17 0.15 0.13 0.12 0.11 0.10 0.10 0.09 0.09 0.09 0.09 0.09 0.09 0.08 0.08 0.08 0.08 0.07 0.07 0.06 0.06 0.06 0.06 0.05 0.05 0.05 0.04 0.05 0.06 0.07 0.09 0.12 0.15 0.17 0.18 0.18 0.18 0.18 0.17 0.17
0.31 0.30 0.29 0.28 0.28 0.28 0.27 0.26 0.26 0.26 0.27 0.27 0.27 0.27 0.27 0.26 0.25 0.26 0.25 0.25 0.24 0.21 0.18 0.15 0.14 0.12 0.11 0.10 0.10 0.09 0.09 0.09 0.09 0.09 0.08 0.08 0.08 0.08 0.08 0.08 0.08 0.07 0.07 0.07 0.06 0.06 0.06 0.05 0.05 0.05 0.05 0.05 0.06 0.07 0.10 0.13 0.16 0.17 0.18 0.18 0.18 0.17 0.17
0.32 0.32 0.31 0.29 0.28 0.29 0.30 0.29 0.28 0.27 0.27 0.27 0.27 0.27 0.27 0.27 0.26 0.26 0.25 0.24 0.22 0.19 0.17 0.15 0.13 0.12 0.11 0.10 0.10 0.10 0.10 0.09 0.09 0.09 0.08 0.08 0.08 0.08 0.08 0.08 0.08 0.07 0.07 0.07 0.07 0.06 0.06 0.06 0.05 0.05 0.05 0.05 0.05 0.06 0.08 0.10 0.13 0.16 0.17 0.18 0.18 0.18 0.17
0.31 0.31 0.30 0.30 0.29 0.28 0.28 0.29 0.28 0.28 0.27 0.27 0.27 0.27 0.27 0.27 0.26 0.26 0.25 0.24 0.21 0.18 0.16 0.14 0.13 0.11 0.11 0.10 0.10 0.10 0.10 0.09 0.09 0.09 0.09 0.08 0.08 0.08 0.08 0.08 0.08 0.08 0.07 0.07 0.07 0.06 0.06 0.06 0.06 0.05 0.05 0.05 0.05 0.06 0.06 0.08 0.10 0.13 0.15 0.17 0.18 0.18 0.18
0.30 0.30 0.30 0.29 0.29 0.29 0.28 0.28 0.28 0.28 0.27 0.27 0.27 0.27 0.27 0.27 0.26 0.26 0.25 0.24 0.20 0.17 0.15 0.14 0.13 0.11 0.11 0.10 0.10 0.10 0.10 0.09 0.09 0.09 0.09 0.09 0.08 0.08 0.08 0.08 0.08 0.08 0.07 0.07 0.07 0.07 0.06 0.06 0.06 0.06 0.05 0.05 0.05 0.05 0.06 0.07 0.08 0.09 0.12 0.15 0.17 0.17 0.18
0.28 0.29 0.30 0.30 0.29 0.29 0.29 0.28 0.28 0.28 0.28 0.27 0.27 0.27 0.27 0.26 0.26 0.26 0.25 0.22 0.19 0.16 0.14 0.13 0.12 0.11 0.11 0.11 0.11 0.10 0.10 0.10 0.09 0.09 0.09 0.09 0.09 0.09 0.09 0.09 0.09 0.08 0.08 0.07 0.07 0.07 0.06 0.06 0.06 0.06 0.06 0.05 0.05 0.05 0.06 0.06 0.07 0.08 0.09 0.11 0.14 0.16 0.17
0.27 0.28 0.30 0.30 0.29 0.29 0.30 0.29 0.28 0.28 0.27 0.27 0.27 0.27 0.27 0.26 0.25 0.23 0.23 0.21 0.18 0.16 0.14 0.13 0.12 0.11 0.11 0.11 0.11 0.10 0.10 0.10 0.09 0.09 0.09 0.09 0.09 0.09 0.09 0.09 0.08 0.08 0.08 0.07 0.07 0.07 0.06 0.06 0.06 0.06 0.05 0.05 0.05 0.05 0.05 0.06 0.06 0.07 0.08 0.09 0.10 0.13 0.15
0.27 0.27 0.29 0.30 0.30 0.30 0.30 0.29 0.28 0.28 0.28 0.27 0.27 0.27 0.27 0.24 0.23 0.22 0.21 0.20 0.18 0.15 0.14 0.13 0.12 0.12 0.11 0.11 0.11 0.11 0.10 0.10 0.10 0.09 0.09 0.09 0.09 0.09 0.09 0.09 0.09 0.08 0.08 0.08 0.07 0.07 0.07 0.06 0.06 0.06 0.06 0.05 0.05 0.05 0.05 0.06 0.06 0.07 0.07 0.08 0.09 0.10 0.12

ECMWFFLT1_prec_pwat_009.txt.gz
Precipitable_Water
0.33 0.34 0.35 0.38 0.39 0.39 0.38 0.38 0.39 0.41 0.42 0.43 0.42 0.40 0.38 0.36 0.33 0.29 0.28 0.26 0.24 0.23 0.21 0.20 0.20 0.20 0.20 0.20 0.18 0.18 0.18 0.18 0.18 0.18 0.17 0.17 0.16 0.15 0.15 0.15 0.14 0.12 0.11 0.11 0.12 0.11 0.10 0.10 0.10 0.09 0.08 0.08 0.07 0.07 0.07 0.08 0.09 0.11 0.12 0.13 0.14 0.15 0.15
0.33 0.33 0.34 0.34 0.36 0.37 0.38 0.39 0.39 0.40 0.41 0.41 0.41 0.39 0.38 0.36 0.33 0.31 0.29 0.27 0.24 0.23 0.22 0.21 0.20 0.20 0.20 0.20 0.19 0.19 0.18 0.18 0.18 0.18 0.17 0.17 0.16 0.15 0.15 0.14 0.13 0.12 0.11 0.10 0.11 0.11 0.10 0.10 0.10 0.08 0.07 0.07 0.07 0.07 0.08 0.08 0.09 0.11 0.12 0.13 0.13 0.13 0.13
0.31 0.32 0.33 0.34 0.33 0.34 0.36 0.37 0.39 0.40 0.41 0.41 0.40 0.39 0.38 0.36 0.33 0.31 0.29 0.27 0.25 0.23 0.22 0.21 0.20 0.20 0.21 0.21 0.20 0.19 0.19 0.19 0.19 0.19 0.18 0.17 0.17 0.16 0.15 0.15 0.14 0.13 0.11 0.11 0.10 0.11 0.10 0.10 0.09 0.08 0.07 0.07 0.08 0.08 0.08 0.08 0.09 0.11 0.12 0.12 0.12 0.12 0.13
0.31 0.31 0.31 0.32 0.33 0.35 0.35 0.36 0.37 0.38 0.40 0.40 0.40 0.39 0.38 0.36 0.33 0.31 0.30 0.28 0.26 0.24 0.23 0.21 0.20 0.20 0.21 0.21 0.20 0.19 0.19 0.19 0.19 0.19 0.18 0.17 0.17 0.16 0.16 0.15 0.15 0.14 0.13 0.11 0.10 0.10 0.10 0.09 0.09 0.08 0.08 0.08 0.08 0.08 0.08 0.09 0.10 0.12 0.11 0.11 0.11 0.12 0.12
0.32 0.31 0.30 0.29 0.30 0.32 0.35 0.37 0.38 0.38 0.38 0.39 0.40 0.39 0.38 0.36 0.34 0.32 0.30 0.29 0.27 0.25 0.23 0.22 0.21 0.21 0.22 0.22 0.20 0.20 0.19 0.19 0.19 0.19 0.18 0.17 0.17 0.17 0.16 0.16 0.14 0.13 0.13 0.12 0.11 0.10 0.09 0.09 0.09 0.09 0.09 0.09 0.08 0.08 0.09 0.10 0.11 0.11 0.10 0.10 0.11 0.12 0.12
0.33 0.32 0.31 0.30 0.29 0.30 0.31 0.34 0.36 0.37 0.37 0.37 0.37 0.38 0.37 0.36 0.34 0.32 0.31 0.29 0.27 0.26 0.25 0.24 0.23 0.23 0.22 0.22 0.21 0.20 0.19 0.19 0.19 0.19 0.18 0.17 0.17 0.17 0.16 0.15 0.13 0.13 0.13 0.12 0.11 0.09 0.09 0.09 0.09 0.08 0.08 0.08 0.09 0.08 0.09 0.10 0.10 0.10 0.10 0.10 0.10 0.11 0.12
0.35 0.34 0.32 0.31 0.30 0.29 0.29 0.31 0.32 0.33 0.34 0.35 0.36 0.35 0.35 0.35 0.33 0.32 0.31 0.29 0.28 0.27 0.26 0.26 0.25 0.25 0.23 0.22 0.21 0.20 0.20 0.19 0.19 0.18 0.18 0.17 0.17 0.16 0.15 0.13 0.13 0.13 0.13 0.12 0.11 0.10 0.10 0.09 0.09 0.09 0.07 0.08 0.09 0.09 0.10 0.09 0.09 0.08 0.09 0.10 0.10 0.10 0.11
0.36 0.36 0.34 0.33 0.31 0.30 0.30 0.30 0.30 0.30 0.31 0.32 0.33 0.34 0.35 0.34 0.33 0.32 0.31 0.29 0.28 0.28 0.27 0.27 0.28 0.26 0.25 0.23 0.22 0.21 0.20 0.20 0.19 0.19 0.18 0.17 0.17 0.15 0.15 0.14 0.14 0.14 0.13 0.12 0.11 0.10 0.09 0.09 0.08 0.08 0.09 0.09 0.09 0.09 0.09 0.10 0.09 0.08 0.08 0.09 0.10 0.11 0.11
0.37 0.36 0.35 0.34 0.32 0.30 0.30 0.29 0.29 0.29 0.29 0.30 0.30 0.32 0.33 0.33 0.33 0.32 0.30 0.29 0.28 0.28 0.28 0.29 0.28 0.27 0.25 0.23 0.22 0.22 0.21 0.21 0.20 0.18 0.17 0.16 0.15 0.16 0.16 0.15 0.15 0.14 0.13 0.12 0.11 0.09 0.09 0.09 0.08 0.08 0.08 0.08 0.08 0.08 0.08 0.09 0.09 0.08 0.08 0.09 0.10 0.11 0.13
0.37 0.36 0.36 0.34 0.33 0.31 0.29 0.29 0.29 0.29 0.30 0.30 0.30 0.31 0.32 0.33 0.33 0.32 0.30 0.29 0.28 0.28 0.29 0.29 0.28 0.27 0.24 0.23 0.23 0.23 0.22 0.22 0.21 0.20 0.19 0.18 0.18 0.18 0.17 0.16 0.14 0.13 0.12 0.11 0.10 0.10 0.09 0.08 0.08 0.08 0.08 0.08 0.09 0.09 0.09 0.08 0.08 0.08 0.09 0.10 0.10 0.11 0.14
0.37 0.37 0.36 0.35 0.34 0.32 0.30 0.29 0.29 0.29 0.29 0.29 0.29 0.30 0.31 0.33 0.33 0.32 0.30 0.29 0.28 0.28 0.29 0.29 0.28 0.26 0.24 0.24 0.23 0.23 0.22 0.21 0.20 0.19 0.20 0.20 0.21 0.20 0.18 0.15 0.14 0.13 0.13 0.11 0.10 0.10 0.10 0.09 0.08 0.08 0.08 0.09 0.09 0.09 0.08 0.08 0.08 0.09 0.09 0.09 0.10 0.10 0.13
0.38 0.38 0.37 0.36 0.34 0.32 0.31 0.30 0.29 0.29 0.29 0.29 0.29 0.29 0.30 0.31 0.32 0.31 0.30 0.29 0.29 0.29 0.29 0.29 0.28 0.25 0.23 0.23 0.23 0.22 0.21 0.19 0.18 0.19 0.19 0.19 0.19 0.18 0.16 0.16 0.14 0.13 0.12 0.12 0.11 0.10 0.09 0.09 0.08 0.08 0.09 0.08 0.08 0.07 0.08 0.08 0.09 0.09 0.10 0.10 0.11 0.12 0.13
0.38 0.37 0.37 0.35 0.33 0.32 0.31 0.30 0.30 0.29 0.29 0.28 0.29 0.29 0.29 0.30 0.31 0.30 0.29 0.29 0.29 0.29 0.29 0.29 0.26 0.23 0.23 0.24 0.23 0.22 0.20 0.18 0.18 0.19 0.19 0.18 0.16 0.15 0.15 0.14 0.14 0.13 0.12 0.11 0.11 0.10 0.09 0.09 0.09 0.08 0.07 0.07 0.08 0.09 0.08 0.09 0.09 0.10 0.11 0.11 0.12 0.13 0.14
0.37 0.37 0.36 0.35 0.34 0.33 0.32 0.31 0.31 0.30 0.29 0.29 0.29 0.29 0.29 0.29 0.29 0.29 0.29 0.29 0.29 0.29 0.29 0.28 0.25 0.23 0.24 0.24 0.22 0.20 0.19 0.19 0.19 0.18 0.16 0.15 0.14 0.13 0.13 0.13 0.12 0.12 0.12 0.12 0.11 0.10 0.09 0.10 0.10 0.08 0.08 0.09 0.10 0.09 0.09 0.09 0.09 0.10 0.11 0.12 0.12 0.14 0.16
0.36 0.36 0.36 0.35 0.35 0.33 0.33 0.33 0.32 0.30 0.30 0.29 0.29 0.29 0.29 0.29 0.30 0.29 0.29 0.30 0.30 0.30 0.29 0.27 0.25 0.24 0.24 0.23 0.22 0.21 0.20 0.19 0.17 0.17 0.16 0.15 0.13 0.13 0.12 0.12 0.11 0.11 0.11 0.10 0.11 0.11 0.11 0.11 0.11 0.10 0.10 0.11 0.11 0.11 0.10 0.10 0.10 0.11 0.11 0.12 0.14 0.16 0.18
0.36 0.36 0.36 0.35 0.34 0.34 0.33 0.33 0.33 0.31 0.30 0.30 0.30 0.30 0.29 0.29 0.29 0.30 0.31 0.31 0.31 0.30 0.29 0.27 0.26 0.25 0.24 0.23 0.22 0.21 0.20 0.19 0.18 0.17 0.16 0.15 0.14 0.13 0.12 0.12 0.12 0.13 0.13 0.13 0.14 0.13 0.12 0.12 0.12 0.12 0.12 0.11 0.11 0.10 0.11 0.10 0.10 0.11 0.11 0.12 0.14 0.15 0.16
0.36 0.36 0.36 0.35 0.34 0.34 0.33 0.33 0.33 0.32 0.31 0.30 0.30 0.29 0.29 0.30 0.30 0.31 0.31 0.30 0.30 0.29 0.28 0.27 0.26 0.26 0.25 0.24 0.23 0.21 0.20 0.19 0.18 0.17 0.16 0.14 0.13 0.13 0.13 0.12 0.12 0.12 0.13 0.13 0.13 0.12 0.12 0.12 0.11 0.10 0.10 0.10 0.10 0.09 0.09 0.09 0.09 0.10 0.12 0.13 0.14 0.14 0.15
0.35 0.36 0.36 0.35 0.34 0.34 0.32 0.32 0.32 0.31 0.30 0.30 0.29 0.29 0.30 0.30 0.30 0.31 0.31 0.30 0.30 0.29 0.28 0.27 0.27 0.27 0.26 0.24 0.23 0.22 0.20 0.18 0.18 0.17 0.15 0.14 0.13 0.13 0.11 0.11 0.12 0.12 0.12 0.12 0.11 0.11 0.10 0.10 0.09 0.08 0.08 0.08 0.08 0.09 0.09 0.09 0.08 0.10 0.13 0.14 0.15 0.14 0.15
0.35 0.35 0.35 0.35 0.34 0.34 0.33 0.32 0.31 0.31 0.30 0.30 0.29 0.29 0.29 0.30 0.29 0.30 0.30 0.29 0.28 0.28 0.28 0.27 0.28 0.27 0.26 0.24 0.23 0.21 0.19 0.19 0.19 0.17 0.15 0.14 0.12 0.11 0.11 0.12 0.12 0.11 0.10 0.09 0.09 0.08 0.08 0.07 0.07 0.07 0.07 0.07 0.08 0.08 0.09 0.09 0.10 0.12 0.14 0.15 0.15 0.15 0.15
0.34 0.34 0.34 0.34 0.34 0.34 0.33 0.32 0.31 0.30 0.29 0.29 0.29 0.29 0.28 0.29 0.28 0.28 0.29 0.28 0.27 0.26 0.26 0.26 0.26 0.26 0.26 0.25 0.23 0.21 0.20 0.20 0.18 0.16 0.15 0.14 0.13 0.12 0.11 0.12 0.11 0.11 0.10 0.09 0.08 0.07 0.07 0.06 0.06 0.06 0.06 0.07 0.07 0.08 0.08 0.09 0.11 0.14 0.16 0.16 0.16 0.15 0.15
0.33 0.33 0.33 0.33 0.34 0.33 0.33 0.32 0.30 0.29 0.28 0.29 0.29 0.29 0.29 0.28 0.27 0.28 0.28 0.28 0.27 0.26 0.25 0.25 0.25 0.25 0.24 0.23 0.22 0.20 0.20 0.18 0.17 0.16 0.16 0.15 0.13 0.13 0.13 0.13 0.11 0.10 0.10 0.08 0.07 0.07 0.07 0.06 0.06 0.06 0.06 0.06 0.07 0.07 0.08 0.09 0.12 0.16 0.17 0.17 0.16 0.15 0.15
0.32 0.32 0.32 0.33 0.33 0.33 0.32 0.32 0.31 0.29 0.28 0.28 0.28 0.29 0.30 0.29 0.28 0.28 0.27 0.25 0.25 0.24 0.24 0.24 0.24 0.23 0.23 0.22 0.21 0.20 0.18 0.17 0.16 0.16 0.16 0.14 0.14 0.13 0.13 0.11 0.10 0.09 0.08 0.07 0.07 0.06 0.06 0.06 0.05 0.05 0.05 0.05 0.06 0.06 0.07 0.10 0.13 0.17 0.18 0.18 0.17 0.16 0.15
0.32 0.31 0.31 0.31 0.32 0.32 0.32 0.32 0.31 0.30 0.28 0.28 0.28 0.28 0.29 0.29 0.29 0.28 0.27 0.25 0.24 0.23 0.23 0.24 0.23 0.23 0.23 0.21 0.20 0.19 0.18 0.17 0.17 0.15 0.14 0.14 0.13 0.13 0.11 0.10 0.09 0.08 0.07 0.07 0.07 0.06 0.05 0.05 0.05 0.05 0.05 0.05 0.05 0.06 0.08 0.10 0.14 0.17 0.18 0.18 0.18 0.18 0.17
0.31 0.31 0.30 0.30 0.31 0.31 0.32 0.31 0.31 0.31 0.30 0.29 0.28 0.28 0.28 0.28 0.29 0.29 0.28 0.27 0.24 0.24 0.24 0.24 0.24 0.23 0.22 0.21 0.19 0.18 0.18 0.17 0.16 0.14 0.13 0.13 0.12 0.11 0.10 0.09 0.08 0.08 0.07 0.07 0.06 0.06 0.05 0.05 0.05 0.05 0.05 0.05 0.05 0.06 0.08 0.11 0.14 0.17 0.18 0.18 0.18 0.18 0.18
0.31 0.30 0.30 0.30 0.30 0.30 0.31 0.31 0.31 0.30 0.30 0.29 0.28 0.28 0.28 0.28 0.29 0.29 0.28 0.27 0.25 0.25 0.25 0.25 0.24 0.24 0.22 0.20 0.19 0.19 0.17 0.16 0.14 0.13 0.12 0.12 0.11 0.10 0.09 0.08 0.08 0.08 0.07 0.07 0.06 0.06 0.06 0.05 0.05 0.05 0.05 0.05 0.05 0.07 0.08 0.10 0.14 0.18 0.18 0.18 0.18 0.18 0.18
0.30 0.30 0.30 0.29 0.30 0.30 0.30 0.31 0.31 0.29 0.28 0.29 0.28 0.28 0.28 0.28 0.28 0.28 0.29 0.27 0.25 0.25 0.26 0.26 0.25 0.23 0.21 0.20 0.18 0.16 0.15 0.14 0.13 0.12 0.12 0.11 0.10 0.09 0.09 0.09 0.08 0.08 0.07 0.07 0.07 0.06 0.06 0.06 0.06 0.05 0.05 0.05 0.05 0.06 0.07 0.09 0.13 0.17 0.18 0.18 0.18 0.17 0.17
0.29 0.29 0.29 0.29 0.29 0.29 0.29 0.30 0.30 0.29 0.28 0.27 0.28 0.28 0.27 0.27 0.27 0.28 0.28 0.27 0.26 0.26 0.26 0.25 0.25 0.23 0.20 0.18 0.17 0.16 0.15 0.13 0.12 0.11 0.10 0.10 0.10 0.10 0.09 0.09 0.09 0.08 0.08 0.07 0.07 0.07 0.06 0.06 0.06 0.06 0.05 0.05 0.05 0.05 0.06 0.09 0.12 0.16 0.17 0.18 0.18 0.17 0.17
0.27 0.27 0.27 0.28 0.28 0.28 0.28 0.28 0.28 0.28 0.27 0.27 0.27 0.27 0.26 0.26 0.27 0.27 0.27 0.26 0.26 0.25 0.25 0.25 0.24 0.21 0.19 0.17 0.16 0.14 0.13 0.11 0.11 0.10 0.10 0.10 0.10 0.10 0.09 0.09 0.09 0.09 0.08 0.08 0.07 0.07 0.07 0.06 0.06 0.05 0.05 0.05 0.05 0.05 0.06 0.08 0.11 0.14 0.17 0.18 0.17 0.17 0.16
0.28 0.27 0.27 0.27 0.27 0.27 0.27 0.27 0.27 0.27 0.28 0.28 0.27 0.27 0.26 0.25 0.26 0.26 0.26 0.27 0.26 0.24 0.24 0.24 0.22 0.19 0.17 0.16 0.14 0.12 0.11 0.11 0.10 0.10 0.10 0.10 0.10 0.09 0.09 0.09 0.08 0.08 0.08 0.08 0.07 0.07 0.06 0.06 0.06 0.05 0.05 0.05 0.05 0.05 0.05 0.07 0.09 0.13 0.16 0.17 0.17 0.16 0.16
0.29 0.29 0.28 0.28 0.28 0.28 0.27 0.26 0.27 0.28 0.29 0.28 0.28 0.28 0.27 0.26 0.26 0.26 0.27 0.27 0.26 0.25 0.23 0.22 0.20 0.18 0.16 0.14 0.13 0.12 0.11 0.10 0.10 0.10 0.10 0.10 0.10 0.09 0.09 0.09 0.09 0.08 0.08 0.08 0.07 0.07 0.06 0.06 0.06 0.05 0.05 0.05 0.05 0.05 0.05 0.06 0.07 0.10 0.14 0.16 0.17 0.17 0.16
0.31 0.30 0.29 0.28 0.28 0.29 0.29 0.28 0.28 0.28 0.28 0.28 0.28 0.28 0.27 0.27 0.27 0.27 0.27 0.27 0.25 0.24 0.23 0.21 0.19 0.17 0.15 0.14 0.12 0.11 0.11 0.10 0.10 0.10 0.10 0.10 0.10 0.09 0.09 0.09 0.09 0.09 0.08 0.08 0.07 0.07 0.07 0.06 0.06 0.05 0.05 0.05 0.05 0.05 0.05 0.05 0.06 0.08 0.11 0.14 0.16 0.17 0.16
0.31 0.31 0.30 0.30 0.29 0.28 0.28 0.28 0.28 0.28 0.28 0.28 0.28 0.27 0.27 0.27 0.27 0.27 0.27 0.26 0.25 0.23 0.22 0.21 0.18 0.16 0.14 0.13 0.12 0.11 0.11 0.10 0.10 0.10 0.10 0.10 0.09 0.09 0.09 0.09 0.09 0.09 0.08 0.08 0.07 0.07 0.07 0.06 0.06 0.06 0.05 0.05 0.05 0.05 0.05 0.05 0.05 0.06 0.08 0.11 0.14 0.16 0.16
0.31 0.31 0.30 0.30 0.29 0.29 0.28 0.28 0.28 0.28 0.28 0.28 0.27 0.27 0.27 0.27 0.27 0.27 0.27 0.26 0.24 0.23 0.22 0.20 0.18 0.15 0.14 0.12 0.11 0.11 0.11 0.10 0.10 0.10 0.10 0.10 0.09 0.09 0.09 0.09 0.09 0.09 0.08 0.08 0.08 0.07 0.07 0.06 0.06 0.06 0.06 0.05 0.05 0.05 0.05 0.05 0.05 0.06 0.07 0.09 0.11 0.14 0.15
0.29 0.29 0.29 0.29 0.29 0.29 0.28 0.28 0.28 0.28 0.28 0.28 0.28 0.27 0.27 0.26 0.27 0.27 0.27 0.25 0.23 0.23 0.21 0.19 0.17 0.15 0.13 0.12 0.12 0.11 0.11 0.11 0.10 0.10 0.10 0.10 0.10 0.10 0.09 0.09 0.09 0.09 0.08 0.08 0.08 0.07 0.07 0.07 0.06 0.06 0.06 0.06 0.05 0.05 0.05 0.05 0.05 0.06 0.06 0.07 0.09 0.11 0.13
0.27 0.27 0.28 0.28 0.29 0.30 0.29 0.28 0.27 0.27 0.28 0.28 0.28 0.27 0.27 0.27 0.26 0.25 0.25 0.24 0.23 0.22 0.21 0.18 0.16 0.14 0.13 0.12 0.11 0.11 0.11 0.11 0.10 0.10 0.10 0.10 0.10 0.10 0.09 0.09 0.09 0.09 0.09 0.08 0.08 0.08 0.07 0.07 0.07 0.06 0.06 0.06 0.06 0.05 0.05 0.05 0.05 0.05 0.06 0.07 0.07 0.09 0.10
0.26 0.26 0.26 0.28 0.29 0.30 0.29 0.29 0.28 0.28 0.28 0.27 0.27 0.27 0.27 0.25 0.24 0.24 0.23 0.22 0.22 0.22 0.20 0.17 0.15 0.14 0.13 0.12 0.12 0.11 0.11 0.11 0.11 0.10 0.10 0.10 0.10 0.10 0.09 0.09 0.09 0.09 0.09 0.08 0.08 0.08 0.07 0.07 0.07 0.07 0.07 0.06 0.06 0.06 0.06 0.05 0.05 0.05 0.06 0.06 0.07 0.08 0.09

ECMWFFLT1_prec_pwat_012.txt.gz
Precipitable_Water
0.39 0.37 0.36 0.36 0.36 0.35 0.35 0.35 0.35 0.35 0.35 0.36 0.38 0.38 0.37 0.36 0.35 0.35 0.36 0.37 0.38 0.37 0.34 0.32 0.30 0.28 0.27 0.25 0.23 0.22 0.23 0.22 0.22 0.22 0.22 0.22 0.22 0.21 0.21 0.20 0.18 0.17 0.16 0.17 0.18 0.16 0.15 0.15 0.15 0.14 0.14 0.13 0.12 0.11 0.10 0.10 0.09 0.09 0.09 0.09 0.09 0.09 0.09
0.39 0.38 0.37 0.36 0.35 0.35 0.35 0.34 0.34 0.34 0.34 0.34 0.35 0.36 0.37 0.36 0.35 0.36 0.36 0.37 0.36 0.35 0.34 0.32 0.30 0.28 0.27 0.26 0.24 0.23 0.22 0.22 0.22 0.22 0.22 0.22 0.22 0.21 0.21 0.21 0.19 0.18 0.16 0.16 0.17 0.16 0.16 0.16 0.16 0.14 0.14 0.12 0.11 0.11 0.10 0.09 0.09 0.09 0.09 0.09 0.09 0.10 0.10
0.40 0.39 0.38 0.36 0.35 0.35 0.35 0.34 0.33 0.33 0.33 0.33 0.34 0.35 0.36 0.36 0.35 0.36 0.36 0.37 0.36 0.35 0.34 0.32 0.30 0.28 0.27 0.26 0.25 0.24 0.23 0.23 0.23 0.23 0.23 0.23 0.22 0.21 0.21 0.21 0.20 0.19 0.17 0.17 0.16 0.17 0.16 0.15 0.15 0.13 0.13 0.13 0.12 0.11 0.11 0.09 0.09 0.08 0.09 0.09 0.10 0.10 0.11
0.40 0.39 0.39 0.37 0.36 0.35 0.35 0.34 0.33 0.32 0.32 0.32 0.33 0.34 0.35 0.36 0.36 0.36 0.37 0.37 0.37 0.36 0.34 0.31 0.29 0.28 0.27 0.26 0.25 0.24 0.24 0.24 0.24 0.24 0.24 0.23 0.22 0.22 0.22 0.21 0.21 0.20 0.19 0.18 0.16 0.16 0.15 0.15 0.14 0.14 0.14 0.13 0.12 0.11 0.10 0.09 0.09 0.09 0.09 0.09 0.10 0.11 0.11
0.41 0.39 0.39 0.38 0.37 0.36 0.36 0.35 0.34 0.32 0.31 0.31 0.31 0.32 0.34 0.36 0.36 0.36 0.35 0.36 0.37 0.35 0.33 0.31 0.29 0.27 0.27 0.26 0.24 0.24 0.24 0.25 0.25 0.25 0.25 0.24 0.23 0.23 0.22 0.22 0.22 0.21 0.20 0.18 0.16 0.16 0.15 0.15 0.15 0.15 0.14 0.13 0.11 0.10 0.10 0.09 0.09 0.09 0.09 0.10 0.11 0.11 0.11
0.40 0.40 0.38 0.39 0.38 0.37 0.37 0.36 0.35 0.34 0.32 0.31 0.31 0.31 0.32 0.35 0.36 0.36 0.35 0.35 0.36 0.35 0.33 0.30 0.29 0.27 0.26 0.25 0.24 0.24 0.24 0.25 0.25 0.26 0.25 0.24 0.23 0.23 0.23 0.22 0.22 0.21 0.20 0.18 0.17 0.15 0.14 0.15 0.14 0.14 0.14 0.13 0.11 0.10 0.09 0.09 0.09 0.09 0.10 0.10 0.10 0.10 0.09
0.39 0.40 0.39 0.39 0.39 0.38 0.37 0.37 0.36 0.35 0.34 0.32 0.31 0.30 0.30 0.32 0.34 0.36 0.36 0.35 0.35 0.35 0.33 0.31 0.28 0.27 0.26 0.24 0.24 0.24 0.25 0.26 0.26 0.25 0.24 0.24 0.23 0.23 0.23 0.22 0.21 0.20 0.19 0.18 0.16 0.16 0.15 0.15 0.15 0.15 0.12 0.11 0.12 0.11 0.10 0.09 0.08 0.08 0.10 0.10 0.09 0.09 0.09
0.37 0.39 0.39 0.39 0.39 0.39 0.38 0.37 0.36 0.36 0.34 0.33 0.32 0.30 0.29 0.29 0.30 0.31 0.33 0.33 0.34 0.33 0.32 0.30 0.28 0.27 0.26 0.25 0.24 0.24 0.26 0.26 0.25 0.25 0.24 0.24 0.23 0.23 0.23 0.22 0.21 0.20 0.19 0.17 0.16 0.15 0.15 0.14 0.14 0.14 0.13 0.12 0.11 0.10 0.09 0.09 0.09 0.08 0.08 0.08 0.09 0.09 0.07
0.36 0.37 0.38 0.39 0.39 0.39 0.39 0.37 0.37 0.36 0.35 0.34 0.33 0.31 0.29 0.29 0.29 0.30 0.30 0.30 0.30 0.31 0.30 0.29 0.28 0.27 0.27 0.26 0.25 0.26 0.27 0.27 0.26 0.24 0.23 0.23 0.24 0.23 0.22 0.21 0.20 0.19 0.18 0.17 0.16 0.16 0.15 0.14 0.13 0.12 0.12 0.11 0.10 0.09 0.08 0.09 0.09 0.09 0.09 0.08 0.07 0.07 0.09
0.35 0.36 0.36 0.37 0.37 0.38 0.38 0.38 0.37 0.37 0.36 0.35 0.34 0.32 0.30 0.29 0.29 0.29 0.29 0.28 0.28 0.29 0.29 0.29 0.28 0.28 0.27 0.26 0.26 0.27 0.27 0.27 0.26 0.25 0.24 0.24 0.24 0.23 0.21 0.20 0.19 0.19 0.18 0.17 0.16 0.15 0.14 0.13 0.12 0.12 0.11 0.11 0.10 0.10 0.10 0.09 0.09 0.08 0.08 0.07 0.07 0.08 0.09
0.34 0.34 0.35 0.36 0.36 0.36 0.36 0.37 0.37 0.37 0.37 0.36 0.35 0.33 0.31 0.29 0.28 0.28 0.28 0.28 0.28 0.28 0.28 0.28 0.27 0.28 0.27 0.27 0.27 0.28 0.27 0.26 0.26 0.25 0.26 0.25 0.24 0.23 0.21 0.20 0.20 0.19 0.18 0.17 0.16 0.15 0.14 0.13 0.12 0.12 0.12 0.11 0.10 0.10 0.10 0.09 0.09 0.08 0.08 0.07 0.07 0.06 0.08
0.34 0.34 0.34 0.35 0.36 0.36 0.36 0.36 0.36 0.37 0.37 0.36 0.36 0.34 0.31 0.29 0.28 0.27 0.27 0.27 0.27 0.28 0.28 0.27 0.28 0.28 0.27 0.27 0.27 0.28 0.27 0.26 0.26 0.26 0.26 0.27 0.26 0.25 0.25 0.24 0.22 0.19 0.18 0.17 0.15 0.14 0.14 0.13 0.12 0.12 0.11 0.10 0.10 0.09 0.09 0.09 0.09 0.08 0.08 0.08 0.07 0.08 0.07
0.34 0.34 0.34 0.35 0.35 0.35 0.35 0.35 0.36 0.36 0.36 0.36 0.35 0.34 0.32 0.29 0.28 0.27 0.26 0.27 0.27 0.27 0.27 0.27 0.27 0.27 0.26 0.27 0.27 0.28 0.26 0.25 0.25 0.26 0.26 0.27 0.26 0.24 0.23 0.22 0.21 0.20 0.18 0.16 0.15 0.14 0.13 0.13 0.12 0.11 0.10 0.10 0.10 0.11 0.10 0.09 0.09 0.09 0.09 0.09 0.08 0.08 0.08
0.34 0.34 0.34 0.34 0.34 0.35 0.35 0.35 0.35 0.35 0.35 0.36 0.35 0.34 0.32 0.29 0.28 0.27 0.27 0.27 0.27 0.26 0.27 0.27 0.27 0.26 0.25 0.26 0.27 0.27 0.25 0.24 0.24 0.24 0.24 0.23 0.22 0.22 0.21 0.19 0.17 0.16 0.15 0.15 0.14 0.13 0.12 0.12 0.11 0.10 0.11 0.11 0.12 0.11 0.10 0.10 0.09 0.09 0.09 0.09 0.08 0.08 0.09
0.33 0.34 0.34 0.34 0.34 0.34 0.34 0.35 0.35 0.35 0.35 0.35 0.35 0.34 0.32 0.29 0.29 0.28 0.27 0.27 0.27 0.27 0.27 0.27 0.26 0.25 0.25 0.25 0.26 0.26 0.25 0.24 0.24 0.23 0.23 0.22 0.21 0.20 0.18 0.16 0.15 0.14 0.14 0.13 0.13 0.12 0.12 0.13 0.13 0.13 0.13 0.13 0.13 0.13 0.12 0.11 0.10 0.09 0.09 0.08 0.08 0.08 0.08
0.33 0.33 0.33 0.34 0.34 0.34 0.34 0.34 0.35 0.35 0.35 0.35 0.34 0.34 0.32 0.30 0.28 0.28 0.27 0.27 0.27 0.27 0.27 0.27 0.26 0.25 0.25 0.26 0.26 0.26 0.26 0.25 0.25 0.23 0.22 0.21 0.20 0.19 0.17 0.16 0.15 0.15 0.15 0.14 0.14 0.14 0.14 0.14 0.15 0.15 0.14 0.14 0.13 0.12 0.11 0.10 0.09 0.08 0.08 0.07 0.06 0.06 0.06
0.33 0.34 0.34 0.33 0.34 0.33 0.33 0.33 0.34 0.35 0.35 0.34 0.34 0.33 0.32 0.30 0.28 0.28 0.27 0.26 0.27 0.27 0.27 0.27 0.26 0.26 0.26 0.27 0.26 0.26 0.26 0.26 0.26 0.23 0.22 0.21 0.20 0.18 0.16 0.14 0.14 0.15 0.15 0.15 0.15 0.15 0.15 0.15 0.13 0.12 0.11 0.11 0.11 0.10 0.10 0.08 0.07 0.06 0.07 0.06 0.05 0.05 0.06
0.33 0.34 0.34 0.33 0.33 0.33 0.33 0.33 0.34 0.34 0.34 0.34 0.34 0.32 0.30 0.28 0.27 0.27 0.27 0.26 0.27 0.27 0.27 0.27 0.26 0.27 0.27 0.27 0.26 0.26 0.26 0.27 0.26 0.25 0.23 0.21 0.19 0.16 0.14 0.14 0.14 0.14 0.14 0.14 0.14 0.14 0.13 0.12 0.11 0.10 0.10 0.09 0.09 0.09 0.09 0.07 0.05 0.06 0.06 0.05 0.05 0.05 0.08
0.32 0.33 0.33 0.34 0.34 0.34 0.33 0.33 0.33 0.34 0.34 0.34 0.33 0.31 0.30 0.28 0.26 0.26 0.26 0.26 0.27 0.27 0.28 0.27 0.28 0.28 0.28 0.27 0.26 0.27 0.27 0.27 0.27 0.25 0.22 0.20 0.18 0.15 0.14 0.13 0.13 0.13 0.13 0.13 0.12 0.11 0.11 0.10 0.09 0.08 0.08 0.07 0.07 0.07 0.07 0.06 0.05 0.05 0.05 0.05 0.06 0.08 0.10
0.32 0.32 0.32 0.33 0.33 0.34 0.34 0.33 0.33 0.33 0.33 0.33 0.32 0.31 0.29 0.28 0.26 0.25 0.26 0.27 0.26 0.26 0.27 0.27 0.27 0.28 0.28 0.27 0.27 0.27 0.27 0.27 0.26 0.24 0.22 0.19 0.16 0.14 0.12 0.14 0.14 0.13 0.12 0.12 0.11 0.10 0.09 0.08 0.07 0.07 0.07 0.07 0.07 0.06 0.06 0.06 0.06 0.06 0.06 0.07 0.07 0.10 0.12
0.31 0.31 0.32 0.33 0.33 0.33 0.34 0.34 0.33 0.33 0.33 0.32 0.32 0.30 0.29 0.28 0.27 0.26 0.26 0.26 0.26 0.26 0.26 0.26 0.27 0.28 0.28 0.28 0.27 0.27 0.27 0.26 0.24 0.23 0.21 0.18 0.15 0.14 0.15 0.14 0.13 0.12 0.12 0.11 0.10 0.09 0.08 0.08 0.07 0.07 0.07 0.07 0.06 0.06 0.06 0.06 0.06 0.06 0.07 0.08 0.09 0.12 0.14
0.29 0.30 0.30 0.32 0.32 0.33 0.33 0.34 0.33 0.32 0.32 0.32 0.31 0.30 0.29 0.29 0.28 0.28 0.26 0.26 0.26 0.26 0.26 0.26 0.26 0.27 0.27 0.28 0.28 0.27 0.26 0.25 0.24 0.21 0.19 0.17 0.17 0.17 0.15 0.13 0.12 0.12 0.11 0.10 0.09 0.08 0.08 0.08 0.07 0.07 0.07 0.06 0.06 0.06 0.05 0.05 0.06 0.06 0.08 0.10 0.12 0.14 0.14
0.28 0.29 0.29 0.30 0.31 0.32 0.32 0.33 0.33 0.33 0.32 0.31 0.31 0.30 0.30 0.30 0.29 0.29 0.27 0.26 0.25 0.25 0.26 0.26 0.26 0.26 0.26 0.27 0.27 0.26 0.25 0.23 0.21 0.19 0.17 0.18 0.17 0.15 0.14 0.13 0.11 0.11 0.10 0.09 0.09 0.08 0.08 0.07 0.07 0.07 0.07 0.06 0.06 0.05 0.05 0.05 0.06 0.07 0.08 0.11 0.14 0.16 0.17
0.28 0.29 0.29 0.28 0.29 0.31 0.31 0.32 0.32 0.33 0.32 0.31 0.31 0.31 0.31 0.30 0.30 0.29 0.28 0.27 0.26 0.26 0.26 0.26 0.26 0.25 0.26 0.26 0.26 0.25 0.24 0.22 0.20 0.18 0.18 0.17 0.15 0.14 0.13 0.11 0.10 0.10 0.09 0.09 0.08 0.08 0.08 0.07 0.07 0.07 0.07 0.06 0.06 0.06 0.05 0.05 0.06 0.07 0.09 0.12 0.15 0.17 0.18
0.28 0.28 0.28 0.29 0.29 0.29 0.30 0.31 0.32 0.32 0.32 0.31 0.31 0.31 0.31 0.30 0.30 0.29 0.29 0.27 0.27 0.26 0.26 0.26 0.26 0.26 0.26 0.26 0.26 0.24 0.23 0.21 0.19 0.18 0.16 0.15 0.13 0.12 0.11 0.10 0.10 0.09 0.09 0.08 0.08 0.08 0.08 0.08 0.07 0.07 0.07 0.06 0.06 0.06 0.06 0.05 0.06 0.07 0.10 0.13 0.16 0.17 0.18
0.28 0.28 0.28 0.28 0.29 0.29 0.30 0.30 0.30 0.30 0.30 0.31 0.31 0.31 0.30 0.30 0.30 0.29 0.29 0.28 0.27 0.26 0.26 0.26 0.26 0.27 0.26 0.26 0.25 0.23 0.20 0.18 0.17 0.16 0.15 0.13 0.12 0.11 0.10 0.10 0.10 0.09 0.09 0.08 0.08 0.08 0.08 0.08 0.07 0.07 0.07 0.06 0.06 0.06 0.05 0.05 0.05 0.06 0.09 0.12 0.15 0.17 0.17
0.27 0.27 0.27 0.27 0.28 0.29 0.29 0.29 0.29 0.29 0.30 0.30 0.31 0.30 0.30 0.30 0.29 0.30 0.28 0.27 0.26 0.26 0.26 0.27 0.27 0.26 0.26 0.25 0.24 0.22 0.20 0.17 0.16 0.14 0.13 0.11 0.11 0.10 0.10 0.10 0.10 0.09 0.09 0.09 0.08 0.08 0.08 0.08 0.08 0.07 0.07 0.06 0.06 0.05 0.05 0.05 0.05 0.05 0.07 0.11 0.15 0.16 0.16
0.28 0.27 0.27 0.26 0.27 0.28 0.28 0.28 0.28 0.29 0.28 0.29 0.30 0.30 0.29 0.29 0.29 0.29 0.28 0.27 0.26 0.26 0.27 0.26 0.26 0.25 0.25 0.24 0.22 0.19 0.17 0.15 0.14 0.12 0.11 0.11 0.11 0.10 0.11 0.10 0.10 0.10 0.09 0.09 0.09 0.08 0.08 0.08 0.08 0.07 0.06 0.06 0.06 0.05 0.05 0.05 0.05 0.05 0.06 0.09 0.13 0.15 0.15
0.29 0.29 0.29 0.28 0.26 0.26 0.26 0.27 0.28 0.28 0.29 0.29 0.29 0.29 0.29 0.28 0.28 0.29 0.28 0.27 0.27 0.26 0.26 0.25 0.24 0.23 0.23 0.22 0.20 0.16 0.15 0.14 0.12 0.11 0.11 0.11 0.10 0.10 0.10 0.10 0.10 0.09 0.09 0.09 0.09 0.08 0.08 0.08 0.07 0.07 0.06 0.06 0.06 0.05 0.05 0.05 0.05 0.05 0.05 0.07 0.11 0.14 0.14
0.30 0.30 0.30 0.29 0.28 0.27 0.26 0.26 0.27 0.29 0.30 0.29 0.29 0.29 0.29 0.28 0.29 0.29 0.28 0.28 0.27 0.26 0.24 0.23 0.22 0.22 0.22 0.21 0.18 0.15 0.13 0.12 0.11 0.11 0.10 0.10 0.11 0.10 0.10 0.10 0.09 0.09 0.09 0.09 0.09 0.09 0.08 0.08 0.07 0.07 0.06 0.06 0.06 0.06 0.05 0.05 0.05 0.05 0.05 0.06 0.09 0.12 0.14
0.32 0.31 0.31 0.29 0.28 0.29 0.29 0.28 0.28 0.29 0.29 0.29 0.29 0.29 0.29 0.28 0.29 0.29 0.28 0.28 0.26 0.24 0.23 0.22 0.22 0.22 0.21 0.19 0.16 0.14 0.12 0.11 0.11 0.10 0.10 0.10 0.10 0.10 0.10 0.10 0.10 0.10 0.10 0.09 0.09 0.09 0.08 0.08 0.07 0.07 0.06 0.06 0.06 0.06 0.06 0.05 0.05 0.05 0.05 0.05 0.07 0.10 0.12
0.32 0.31 0.31 0.31 0.29 0.28 0.28 0.28 0.28 0.29 0.29 0.29 0.29 0.28 0.28 0.28 0.28 0.28 0.28 0.27 0.26 0.23 0.22 0.22 0.22 0.21 0.20 0.17 0.15 0.13 0.12 0.11 0.10 0.10 0.10 0.10 0.10 0.10 0.10 0.10 0.10 0.10 0.10 0.09 0.09 0.09 0.08 0.08 0.07 0.07 0.07 0.06 0.06 0.06 0.06 0.05 0.05 0.05 0.05 0.05 0.06 0.08 0.11
0.31 0.31 0.30 0.30 0.30 0.29 0.28 0.27 0.28 0.28 0.28 0.28 0.28 0.28 0.28 0.27 0.28 0.27 0.27 0.26 0.24 0.23 0.22 0.22 0.22 0.21 0.19 0.16 0.14 0.13 0.11 0.11 0.10 0.10 0.10 0.10 0.10 0.10 0.10 0.10 0.10 0.10 0.10 0.09 0.09 0.09 0.08 0.08 0.08 0.07 0.07 0.07 0.07 0.06 0.06 0.06 0.05 0.05 0.05 0.05 0.05 0.07 0.09
0.30 0.29 0.28 0.28 0.29 0.28 0.28 0.27 0.27 0.28 0.28 0.28 0.28 0.27 0.27 0.27 0.27 0.27 0.26 0.24 0.23 0.22 0.22 0.22 0.22 0.21 0.18 0.16 0.14 0.12 0.11 0.11 0.10 0.11 0.11 0.10 0.10 0.10 0.10 0.10 0.10 0.10 0.09 0.09 0.09 0.09 0.08 0.08 0.08 0.08 0.07 0.07 0.07 0.07 0.06 0.06 0.06 0.06 0.05 0.05 0.05 0.06 0.07
0.27 0.27 0.27 0.27 0.28 0.28 0.28 0.28 0.27 0.28 0.28 0.28 0.28 0.27 0.27 0.26 0.25 0.24 0.24 0.23 0.23 0.23 0.22 0.22 0.22 0.20 0.17 0.15 0.13 0.12 0.11 0.11 0.11 0.11 0.11 0.10 0.10 0.10 0.10 0.10 0.10 0.10 0.09 0.09 0.09 0.09 0.09 0.08 0.08 0.08 0.08 0.08 0.07 0.07 0.07 0.06 0.06 0.06 0.06 0.05 0.05 0.05 0.06
0.27 0.27 0.27 0.27 0.28 0.29 0.29 0.28 0.28 0.28 0.28 0.27 0.27 0.27 0.26 0.24 0.23 0.23 0.22 0.22 0.22 0.22 0.22 0.22 0.22 0.20 0.17 0.14 0.12 0.12 0.11 0.11 0.11 0.11 0.11 0.11 0.11 0.10 0.10 0.10 0.10 0.09 0.09 0.09 0.09 0.09 0.09 0.09 0.08 0.08 0.08 0.08 0.08 0.07 0.07 0.07 0.07 0.07 0.06 0.06 0.06 0.05 0.05

ECMWFFLT1_prec_pwat_018.txt.gz
Precipitable_Water
0.27 0.28 0.28 0.29 0.28 0.28 0.28 0.29 0.31 0.34 0.36 0.36 0.37 0.39 0.40 0.40 0.40 0.38 0.36 0.36 0.37 0.37 0.37 0.36 0.35 0.35 0.34 0.33 0.32 0.33 0.33 0.33 0.33 0.33 0.34 0.36 0.35 0.33 0.32 0.29 0.27 0.25 0.24 0.25 0.25 0.23 0.23 0.24 0.25 0.25 0.25 0.24 0.23 0.22 0.22 0.22 0.22 0.22 0.22 0.22 0.22 0.22 0.21
0.27 0.28 0.28 0.28 0.28 0.27 0.27 0.27 0.28 0.30 0.32 0.33 0.34 0.34 0.37 0.38 0.39 0.38 0.38 0.36 0.35 0.36 0.37 0.36 0.35 0.35 0.34 0.34 0.32 0.32 0.32 0.32 0.33 0.34 0.35 0.36 0.35 0.33 0.31 0.30 0.27 0.26 0.25 0.24 0.26 0.24 0.23 0.23 0.23 0.23 0.25 0.24 0.23 0.23 0.23 0.23 0.22 0.22 0.23 0.23 0.23 0.23 0.22
0.28 0.28 0.28 0.28 0.27 0.27 0.27 0.26 0.27 0.28 0.29 0.30 0.31 0.32 0.33 0.35 0.36 0.38 0.38 0.37 0.36 0.36 0.37 0.36 0.34 0.34 0.34 0.34 0.32 0.31 0.32 0.32 0.33 0.35 0.36 0.36 0.35 0.33 0.31 0.30 0.29 0.27 0.26 0.25 0.25 0.25 0.23 0.23 0.22 0.22 0.22 0.24 0.24 0.24 0.24 0.23 0.22 0.22 0.23 0.24 0.24 0.23 0.22
0.28 0.28 0.28 0.27 0.27 0.27 0.27 0.27 0.27 0.27 0.28 0.28 0.29 0.30 0.31 0.32 0.33 0.35 0.37 0.38 0.37 0.37 0.36 0.35 0.34 0.33 0.33 0.33 0.32 0.32 0.31 0.32 0.33 0.35 0.36 0.35 0.35 0.34 0.32 0.31 0.30 0.28 0.26 0.26 0.24 0.25 0.24 0.23 0.22 0.22 0.23 0.24 0.25 0.25 0.25 0.24 0.24 0.24 0.24 0.25 0.25 0.24 0.23
0.29 0.28 0.28 0.27 0.27 0.27 0.27 0.27 0.27 0.27 0.27 0.28 0.28 0.28 0.29 0.30 0.31 0.32 0.35 0.37 0.38 0.37 0.36 0.35 0.34 0.33 0.33 0.33 0.32 0.32 0.32 0.32 0.32 0.34 0.35 0.35 0.35 0.34 0.33 0.31 0.30 0.29 0.28 0.26 0.25 0.25 0.26 0.25 0.25 0.26 0.26 0.26 0.26 0.26 0.26 0.26 0.26 0.26 0.26 0.25 0.24 0.23 0.22
0.28 0.29 0.28 0.28 0.29 0.29 0.29 0.28 0.28 0.27 0.27 0.27 0.27 0.27 0.28 0.28 0.29 0.30 0.32 0.35 0.37 0.37 0.36 0.35 0.34 0.33 0.33 0.32 0.31 0.31 0.32 0.33 0.33 0.33 0.34 0.34 0.34 0.34 0.32 0.30 0.29 0.28 0.27 0.26 0.25 0.24 0.24 0.25 0.25 0.25 0.26 0.26 0.26 0.25 0.24 0.24 0.25 0.25 0.25 0.24 0.23 0.22 0.21
0.27 0.28 0.28 0.29 0.30 0.30 0.30 0.29 0.29 0.28 0.27 0.27 0.27 0.27 0.27 0.27 0.27 0.28 0.30 0.32 0.35 0.37 0.36 0.35 0.34 0.33 0.33 0.32 0.32 0.32 0.32 0.33 0.33 0.33 0.33 0.34 0.34 0.33 0.32 0.30 0.29 0.28 0.27 0.25 0.24 0.24 0.24 0.24 0.25 0.25 0.24 0.25 0.26 0.25 0.24 0.23 0.23 0.23 0.23 0.23 0.21 0.20 0.20
0.27 0.27 0.28 0.29 0.29 0.30 0.30 0.30 0.30 0.29 0.28 0.27 0.27 0.27 0.27 0.27 0.26 0.26 0.28 0.30 0.33 0.35 0.36 0.35 0.34 0.33 0.33 0.33 0.33 0.32 0.32 0.33 0.33 0.33 0.33 0.34 0.34 0.33 0.31 0.30 0.29 0.27 0.26 0.25 0.24 0.23 0.23 0.24 0.24 0.24 0.25 0.25 0.24 0.23 0.23 0.24 0.23 0.21 0.21 0.20 0.20 0.20 0.19
0.28 0.28 0.28 0.29 0.30 0.30 0.30 0.30 0.29 0.29 0.28 0.28 0.27 0.27 0.26 0.26 0.26 0.26 0.26 0.27 0.30 0.33 0.35 0.35 0.34 0.34 0.33 0.34 0.33 0.33 0.33 0.33 0.34 0.33 0.32 0.33 0.33 0.32 0.31 0.30 0.27 0.26 0.26 0.25 0.23 0.23 0.24 0.23 0.23 0.23 0.23 0.23 0.22 0.22 0.21 0.22 0.22 0.21 0.20 0.20 0.19 0.19 0.18
0.29 0.29 0.28 0.28 0.29 0.29 0.29 0.29 0.29 0.29 0.29 0.29 0.28 0.28 0.27 0.26 0.25 0.25 0.25 0.25 0.28 0.30 0.33 0.34 0.35 0.34 0.34 0.33 0.33 0.32 0.32 0.32 0.33 0.34 0.34 0.33 0.33 0.32 0.31 0.29 0.27 0.26 0.26 0.24 0.23 0.23 0.23 0.22 0.22 0.22 0.22 0.22 0.22 0.22 0.22 0.22 0.21 0.19 0.19 0.18 0.17 0.17 0.16
0.28 0.28 0.30 0.29 0.28 0.27 0.27 0.28 0.29 0.29 0.30 0.30 0.30 0.29 0.28 0.26 0.26 0.26 0.25 0.25 0.26 0.28 0.31 0.33 0.34 0.34 0.34 0.33 0.33 0.32 0.32 0.32 0.32 0.33 0.34 0.34 0.33 0.32 0.29 0.27 0.26 0.26 0.25 0.24 0.23 0.23 0.22 0.22 0.21 0.22 0.22 0.22 0.21 0.21 0.21 0.21 0.20 0.19 0.18 0.16 0.15 0.14 0.15
0.28 0.28 0.28 0.27 0.27 0.27 0.27 0.28 0.29 0.30 0.31 0.31 0.31 0.31 0.30 0.28 0.27 0.27 0.26 0.25 0.25 0.27 0.30 0.32 0.33 0.33 0.34 0.33 0.33 0.32 0.31 0.31 0.32 0.32 0.33 0.33 0.32 0.30 0.29 0.28 0.27 0.25 0.25 0.24 0.23 0.22 0.22 0.21 0.21 0.21 0.23 0.22 0.22 0.21 0.20 0.20 0.19 0.18 0.16 0.15 0.14 0.14 0.14
0.28 0.28 0.27 0.27 0.26 0.26 0.27 0.28 0.29 0.30 0.31 0.32 0.33 0.33 0.33 0.30 0.29 0.27 0.26 0.26 0.26 0.27 0.30 0.32 0.32 0.32 0.33 0.33 0.33 0.32 0.31 0.31 0.31 0.31 0.32 0.32 0.32 0.30 0.29 0.29 0.28 0.27 0.26 0.25 0.24 0.22 0.21 0.22 0.22 0.23 0.23 0.23 0.21 0.20 0.19 0.18 0.17 0.16 0.15 0.15 0.15 0.15 0.15
0.27 0.27 0.26 0.26 0.27 0.27 0.27 0.28 0.30 0.31 0.32 0.33 0.33 0.33 0.33 0.31 0.29 0.28 0.27 0.26 0.27 0.28 0.30 0.31 0.31 0.31 0.31 0.32 0.33 0.32 0.31 0.30 0.30 0.30 0.31 0.32 0.31 0.30 0.30 0.29 0.28 0.28 0.27 0.26 0.24 0.22 0.21 0.23 0.25 0.23 0.22 0.22 0.21 0.19 0.17 0.16 0.15 0.15 0.15 0.15 0.15 0.16 0.15
0.26 0.26 0.26 0.26 0.27 0.27 0.27 0.28 0.30 0.31 0.32 0.33 0.33 0.33 0.32 0.31 0.29 0.28 0.27 0.27 0.28 0.29 0.30 0.31 0.31 0.31 0.31 0.32 0.32 0.32 0.31 0.29 0.29 0.29 0.30 0.30 0.29 0.28 0.28 0.28 0.28 0.28 0.27 0.25 0.24 0.24 0.25 0.25 0.24 0.23 0.22 0.20 0.19 0.18 0.17 0.17 0.16 0.16 0.16 0.16 0.16 0.15 0.14
0.27 0.26 0.26 0.27 0.28 0.27 0.27 0.28 0.30 0.32 0.32 0.33 0.33 0.32 0.32 0.30 0.29 0.27 0.26 0.28 0.29 0.29 0.30 0.30 0.31 0.31 0.31 0.31 0.32 0.32 0.31 0.30 0.29 0.28 0.28 0.27 0.27 0.27 0.28 0.28 0.28 0.28 0.28 0.27 0.27 0.26 0.25 0.25 0.24 0.23 0.22 0.21 0.20 0.19 0.18 0.17 0.17 0.16 0.15 0.14 0.13 0.12 0.10
0.26 0.27 0.27 0.27 0.28 0.28 0.28 0.29 0.31 0.32 0.33 0.33 0.33 0.32 0.31 0.30 0.29 0.28 0.28 0.28 0.29 0.29 0.30 0.30 0.30 0.31 0.30 0.31 0.31 0.31 0.31 0.30 0.29 0.27 0.26 0.26 0.26 0.27 0.27 0.27 0.28 0.29 0.29 0.28 0.27 0.27 0.26 0.26 0.24 0.23 0.21 0.20 0.19 0.18 0.17 0.16 0.14 0.13 0.13 0.12 0.10 0.09 0.08
0.27 0.28 0.29 0.29 0.29 0.29 0.29 0.29 0.31 0.32 0.33 0.33 0.32 0.32 0.31 0.30 0.29 0.28 0.28 0.28 0.29 0.29 0.29 0.30 0.30 0.30 0.30 0.30 0.30 0.31 0.30 0.29 0.28 0.27 0.26 0.25 0.25 0.26 0.26 0.26 0.27 0.27 0.27 0.27 0.26 0.26 0.25 0.22 0.21 0.19 0.18 0.18 0.17 0.17 0.16 0.14 0.12 0.12 0.11 0.10 0.09 0.08 0.08
0.29 0.29 0.30 0.31 0.31 0.31 0.30 0.30 0.30 0.32 0.32 0.32 0.32 0.32 0.31 0.30 0.29 0.28 0.28 0.28 0.28 0.29 0.29 0.29 0.30 0.30 0.30 0.30 0.30 0.30 0.29 0.29 0.28 0.27 0.26 0.26 0.26 0.25 0.25 0.25 0.26 0.25 0.24 0.23 0.22 0.21 0.20 0.18 0.18 0.17 0.16 0.15 0.14 0.14 0.13 0.12 0.12 0.11 0.10 0.08 0.08 0.08 0.07
0.30 0.30 0.30 0.31 0.31 0.31 0.30 0.30 0.30 0.32 0.32 0.32 0.32 0.32 0.31 0.30 0.28 0.27 0.27 0.28 0.27 0.27 0.27 0.28 0.28 0.29 0.30 0.30 0.29 0.29 0.29 0.29 0.29 0.27 0.27 0.27 0.25 0.24 0.24 0.25 0.24 0.24 0.23 0.21 0.19 0.18 0.17 0.16 0.16 0.15 0.14 0.13 0.12 0.12 0.11 0.11 0.11 0.10 0.09 0.08 0.08 0.08 0.07
0.30 0.30 0.31 0.31 0.31 0.30 0.30 0.30 0.30 0.32 0.32 0.32 0.32 0.32 0.31 0.30 0.29 0.29 0.28 0.27 0.27 0.26 0.26 0.27 0.28 0.29 0.30 0.30 0.29 0.29 0.29 0.29 0.29 0.28 0.27 0.27 0.25 0.25 0.24 0.24 0.23 0.22 0.21 0.19 0.18 0.17 0.16 0.15 0.14 0.13 0.12 0.11 0.11 0.11 0.11 0.11 0.10 0.09 0.09 0.09 0.08 0.07 0.07
0.30 0.30 0.29 0.29 0.30 0.29 0.29 0.31 0.31 0.31 0.31 0.32 0.32 0.32 0.32 0.30 0.30 0.30 0.28 0.27 0.26 0.26 0.26 0.26 0.27 0.28 0.29 0.29 0.29 0.29 0.29 0.30 0.29 0.28 0.27 0.26 0.25 0.25 0.24 0.23 0.22 0.21 0.20 0.19 0.17 0.16 0.14 0.13 0.12 0.11 0.11 0.11 0.11 0.11 0.10 0.09 0.09 0.09 0.09 0.09 0.08 0.08 0.07
0.29 0.28 0.28 0.28 0.29 0.29 0.30 0.31 0.31 0.32 0.31 0.32 0.32 0.32 0.32 0.31 0.30 0.30 0.29 0.27 0.26 0.26 0.27 0.28 0.28 0.28 0.29 0.29 0.29 0.29 0.29 0.29 0.29 0.28 0.26 0.25 0.25 0.25 0.24 0.22 0.21 0.20 0.18 0.17 0.15 0.14 0.12 0.12 0.11 0.11 0.11 0.11 0.10 0.09 0.09 0.09 0.09 0.09 0.09 0.08 0.08 0.08 0.08
0.28 0.28 0.27 0.27 0.28 0.29 0.29 0.30 0.31 0.31 0.31 0.31 0.32 0.32 0.32 0.31 0.31 0.30 0.29 0.28 0.27 0.27 0.28 0.28 0.28 0.28 0.28 0.28 0.28 0.28 0.28 0.28 0.29 0.27 0.26 0.25 0.25 0.25 0.23 0.21 0.19 0.18 0.16 0.15 0.13 0.12 0.11 0.11 0.11 0.11 0.10 0.10 0.09 0.09 0.09 0.09 0.09 0.09 0.09 0.08 0.08 0.08 0.08
0.28 0.27 0.27 0.27 0.27 0.28 0.29 0.29 0.30 0.31 0.31 0.31 0.32 0.32 0.32 0.31 0.31 0.30 0.30 0.28 0.28 0.28 0.28 0.27 0.27 0.27 0.27 0.27 0.27 0.27 0.27 0.27 0.28 0.27 0.26 0.26 0.25 0.23 0.22 0.20 0.18 0.16 0.15 0.13 0.12 0.11 0.11 0.11 0.10 0.10 0.10 0.10 0.10 0.10 0.09 0.09 0.09 0.09 0.09 0.08 0.08 0.08 0.08
0.27 0.27 0.27 0.26 0.27 0.28 0.28 0.29 0.29 0.30 0.31 0.31 0.31 0.32 0.32 0.32 0.31 0.31 0.30 0.29 0.28 0.28 0.27 0.27 0.27 0.27 0.27 0.27 0.27 0.27 0.27 0.26 0.26 0.26 0.26 0.25 0.24 0.22 0.20 0.18 0.16 0.15 0.14 0.12 0.11 0.11 0.10 0.10 0.10 0.10 0.10 0.10 0.10 0.09 0.09 0.09 0.09 0.09 0.08 0.09 0.08 0.08 0.07
0.27 0.26 0.26 0.26 0.27 0.27 0.27 0.28 0.28 0.29 0.30 0.31 0.31 0.30 0.31 0.31 0.31 0.31 0.30 0.29 0.28 0.28 0.27 0.27 0.27 0.27 0.27 0.27 0.27 0.27 0.26 0.25 0.25 0.24 0.24 0.23 0.22 0.20 0.19 0.17 0.15 0.13 0.12 0.11 0.11 0.10 0.10 0.10 0.10 0.10 0.10 0.10 0.09 0.09 0.09 0.09 0.09 0.09 0.09 0.09 0.08 0.07 0.06
0.26 0.25 0.26 0.26 0.26 0.27 0.27 0.27 0.28 0.28 0.28 0.29 0.29 0.30 0.30 0.31 0.30 0.30 0.29 0.28 0.28 0.28 0.28 0.27 0.27 0.27 0.26 0.26 0.25 0.24 0.23 0.23 0.23 0.23 0.23 0.22 0.20 0.19 0.17 0.15 0.14 0.12 0.11 0.11 0.11 0.11 0.11 0.10 0.10 0.10 0.10 0.10 0.09 0.09 0.09 0.10 0.09 0.09 0.09 0.09 0.08 0.07 0.06
0.26 0.27 0.27 0.27 0.27 0.26 0.26 0.27 0.27 0.27 0.29 0.30 0.30 0.29 0.29 0.30 0.30 0.30 0.29 0.29 0.28 0.28 0.27 0.26 0.24 0.24 0.24 0.23 0.23 0.22 0.22 0.22 0.22 0.22 0.22 0.21 0.18 0.16 0.15 0.13 0.12 0.11 0.11 0.11 0.11 0.11 0.10 0.10 0.10 0.10 0.10 0.10 0.09 0.10 0.10 0.10 0.10 0.10 0.09 0.08 0.08 0.07 0.07
0.28 0.28 0.29 0.28 0.29 0.29 0.27 0.26 0.28 0.30 0.30 0.30 0.31 0.30 0.30 0.31 0.31 0.30 0.29 0.29 0.29 0.27 0.25 0.24 0.23 0.23 0.23 0.23 0.22 0.21 0.21 0.21 0.22 0.21 0.20 0.18 0.16 0.14 0.12 0.12 0.12 0.12 0.11 0.11 0.11 0.10 0.10 0.10 0.10 0.10 0.10 0.10 0.10 0.10 0.10 0.10 0.10 0.09 0.09 0.08 0.07 0.07 0.07
0.30 0.29 0.29 0.29 0.28 0.29 0.29 0.29 0.30 0.30 0.30 0.30 0.31 0.30 0.30 0.31 0.31 0.30 0.29 0.29 0.27 0.26 0.24 0.23 0.23 0.23 0.23 0.22 0.22 0.21 0.21 0.21 0.21 0.20 0.18 0.16 0.14 0.12 0.12 0.12 0.11 0.11 0.11 0.11 0.10 0.10 0.10 0.10 0.10 0.10 0.10 0.10 0.10 0.10 0.10 0.10 0.10 0.09 0.09 0.08 0.08 0.07 0.07
0.28 0.28 0.28 0.28 0.28 0.27 0.27 0.28 0.29 0.29 0.29 0.30 0.30 0.30 0.30 0.30 0.30 0.30 0.29 0.28 0.27 0.25 0.24 0.23 0.23 0.22 0.22 0.22 0.22 0.22 0.21 0.21 0.20 0.18 0.16 0.14 0.12 0.12 0.12 0.11 0.11 0.11 0.11 0.11 0.10 0.10 0.10 0.10 0.10 0.10 0.10 0.10 0.10 0.10 0.10 0.09 0.09 0.09 0.08 0.08 0.08 0.08 0.08
0.28 0.27 0.27 0.27 0.28 0.28 0.27 0.27 0.28 0.28 0.28 0.29 0.29 0.29 0.30 0.30 0.30 0.29 0.29 0.28 0.26 0.24 0.23 0.23 0.23 0.22 0.22 0.22 0.21 0.21 0.21 0.21 0.20 0.17 0.15 0.13 0.12 0.11 0.11 0.11 0.11 0.11 0.11 0.11 0.10 0.10 0.10 0.10 0.10 0.10 0.10 0.10 0.10 0.09 0.09 0.09 0.09 0.09 0.09 0.08 0.08 0.08 0.08
0.27 0.27 0.27 0.27 0.27 0.28 0.27 0.27 0.27 0.28 0.28 0.28 0.28 0.28 0.29 0.29 0.29 0.29 0.28 0.27 0.25 0.24 0.23 0.22 0.22 0.22 0.22 0.22 0.22 0.21 0.21 0.20 0.18 0.16 0.14 0.12 0.12 0.12 0.11 0.11 0.11 0.11 0.11 0.11 0.11 0.11 0.10 0.10 0.10 0.10 0.10 0.10 0.09 0.09 0.09 0.09 0.09 0.09 0.08 0.08 0.08 0.08 0.08
0.26 0.27 0.27 0.27 0.27 0.27 0.27 0.27 0.27 0.27 0.27 0.27 0.27 0.27 0.28 0.28 0.27 0.25 0.25 0.25 0.24 0.24 0.23 0.22 0.22 0.22 0.22 0.21 0.21 0.21 0.21 0.19 0.16 0.15 0.13 0.12 0.11 0.11 0.11 0.11 0.11 0.11 0.11 0.11 0.10 0.10 0.10 0.10 0.10 0.10 0.10 0.09 0.09 0.09 0.08 0.08 0.09 0.09 0.09 0.08 0.08 0.08 0.08
0.26 0.27 0.28 0.28 0.28 0.28 0.27 0.27 0.27 0.27 0.27 0.27 0.27 0.27 0.28 0.25 0.25 0.24 0.24 0.23 0.23 0.23 0.22 0.22 0.22 0.22 0.21 0.21 0.21 0.21 0.20 0.17 0.15 0.13 0.12 0.12 0.11 0.11 0.11 0.11 0.11 0.11 0.11 0.11 0.11 0.11 0.11 0.10 0.10 0.10 0.09 0.09 0.09 0.08 0.08 0.09 0.09 0.09 0.09 0.09 0.08 0.08 0.08

ECMWFFLT1_prec_pwat_024.txt.gz
Precipitable_Water
0.29 0.29 0.29 0.29 0.29 0.29 0.31 0.32 0.32 0.32 0.32 0.32 0.30 0.31 0.32 0.34 0.36 0.37 0.37 0.38 0.39 0.41 0.42 0.42 0.42 0.43 0.44 0.45 0.45 0.45 0.44 0.42 0.41 0.39 0.38 0.38 0.37 0.36 0.36 0.35 0.34 0.33 0.31 0.30 0.30 0.30 0.30 0.31 0.31 0.30 0.31 0.31 0.31 0.30 0.32 0.32 0.32 0.31 0.30 0.30 0.29 0.29 0.29
0.31 0.30 0.30 0.30 0.31 0.30 0.30 0.30 0.32 0.31 0.31 0.30 0.30 0.30 0.30 0.30 0.32 0.33 0.34 0.35 0.35 0.37 0.38 0.38 0.39 0.39 0.40 0.42 0.42 0.43 0.43 0.43 0.41 0.40 0.39 0.38 0.37 0.36 0.36 0.37 0.35 0.34 0.33 0.30 0.30 0.30 0.31 0.30 0.31 0.30 0.32 0.31 0.31 0.31 0.32 0.31 0.30 0.30 0.29 0.29 0.29 0.28 0.28
0.31 0.32 0.32 0.30 0.29 0.28 0.28 0.30 0.32 0.32 0.31 0.31 0.30 0.29 0.29 0.28 0.29 0.29 0.30 0.31 0.32 0.33 0.35 0.35 0.35 0.35 0.37 0.38 0.38 0.39 0.40 0.41 0.40 0.40 0.39 0.38 0.38 0.37 0.37 0.37 0.36 0.34 0.33 0.32 0.30 0.31 0.30 0.30 0.30 0.30 0.32 0.32 0.32 0.30 0.31 0.30 0.30 0.30 0.31 0.30 0.30 0.29 0.29
0.28 0.29 0.29 0.29 0.29 0.30 0.30 0.30 0.30 0.32 0.33 0.33 0.32 0.31 0.29 0.28 0.28 0.27 0.28 0.28 0.30 0.31 0.32 0.33 0.33 0.33 0.34 0.34 0.34 0.35 0.36 0.38 0.38 0.38 0.38 0.38 0.38 0.38 0.37 0.37 0.36 0.35 0.33 0.32 0.31 0.30 0.30 0.30 0.29 0.29 0.30 0.31 0.31 0.30 0.30 0.31 0.31 0.31 0.30 0.30 0.30 0.29 0.28
0.29 0.29 0.28 0.28 0.29 0.28 0.29 0.31 0.31 0.30 0.30 0.32 0.33 0.32 0.31 0.30 0.28 0.27 0.27 0.27 0.28 0.29 0.30 0.31 0.31 0.31 0.32 0.32 0.32 0.33 0.33 0.34 0.35 0.35 0.35 0.35 0.36 0.36 0.36 0.35 0.34 0.33 0.33 0.33 0.31 0.30 0.31 0.30 0.29 0.28 0.29 0.30 0.29 0.30 0.30 0.31 0.30 0.30 0.30 0.30 0.30 0.30 0.29
0.26 0.26 0.26 0.27 0.28 0.28 0.29 0.30 0.30 0.30 0.30 0.29 0.30 0.31 0.31 0.30 0.29 0.28 0.28 0.27 0.28 0.28 0.29 0.30 0.30 0.30 0.31 0.31 0.30 0.30 0.32 0.33 0.33 0.34 0.34 0.35 0.35 0.35 0.34 0.33 0.33 0.33 0.33 0.33 0.32 0.31 0.30 0.30 0.29 0.28 0.28 0.30 0.31 0.30 0.30 0.30 0.30 0.30 0.30 0.29 0.29 0.29 0.29
0.24 0.24 0.24 0.26 0.29 0.29 0.29 0.31 0.31 0.31 0.31 0.30 0.31 0.31 0.31 0.30 0.29 0.28 0.28 0.28 0.27 0.27 0.28 0.29 0.29 0.30 0.30 0.30 0.30 0.29 0.30 0.31 0.32 0.32 0.33 0.34 0.35 0.35 0.33 0.33 0.33 0.33 0.33 0.32 0.32 0.31 0.30 0.30 0.30 0.29 0.28 0.30 0.32 0.32 0.30 0.29 0.28 0.27 0.28 0.29 0.28 0.27 0.28
0.24 0.24 0.26 0.28 0.30 0.30 0.30 0.30 0.30 0.30 0.30 0.30 0.30 0.28 0.28 0.29 0.30 0.29 0.28 0.27 0.26 0.27 0.27 0.27 0.28 0.29 0.29 0.29 0.29 0.29 0.30 0.31 0.30 0.31 0.31 0.32 0.33 0.34 0.33 0.32 0.32 0.31 0.32 0.31 0.31 0.31 0.30 0.30 0.30 0.30 0.30 0.31 0.31 0.30 0.29 0.29 0.28 0.27 0.27 0.27 0.28 0.27 0.27
0.26 0.26 0.28 0.30 0.31 0.31 0.31 0.31 0.31 0.31 0.31 0.29 0.28 0.28 0.27 0.27 0.27 0.27 0.28 0.27 0.27 0.27 0.27 0.27 0.27 0.27 0.28 0.29 0.29 0.29 0.30 0.30 0.31 0.30 0.29 0.30 0.31 0.32 0.33 0.32 0.32 0.31 0.31 0.31 0.31 0.30 0.30 0.30 0.29 0.29 0.29 0.29 0.29 0.30 0.30 0.30 0.30 0.28 0.27 0.27 0.27 0.27 0.28
0.28 0.28 0.29 0.31 0.31 0.32 0.32 0.32 0.32 0.31 0.30 0.30 0.30 0.30 0.31 0.30 0.30 0.29 0.28 0.28 0.28 0.27 0.27 0.27 0.27 0.27 0.28 0.28 0.28 0.29 0.29 0.29 0.30 0.30 0.30 0.29 0.30 0.30 0.31 0.31 0.31 0.31 0.31 0.31 0.30 0.30 0.30 0.29 0.28 0.28 0.29 0.29 0.30 0.32 0.31 0.30 0.29 0.28 0.28 0.27 0.27 0.26 0.27
0.28 0.29 0.31 0.32 0.31 0.30 0.32 0.33 0.33 0.32 0.32 0.32 0.32 0.33 0.32 0.31 0.31 0.31 0.29 0.28 0.27 0.27 0.27 0.27 0.27 0.27 0.28 0.28 0.28 0.28 0.28 0.28 0.28 0.28 0.28 0.29 0.29 0.30 0.30 0.30 0.30 0.31 0.31 0.31 0.31 0.31 0.30 0.30 0.29 0.29 0.29 0.29 0.31 0.32 0.31 0.30 0.29 0.28 0.27 0.27 0.26 0.24 0.26
0.28 0.30 0.31 0.32 0.32 0.32 0.33 0.33 0.33 0.33 0.32 0.32 0.32 0.32 0.32 0.32 0.31 0.30 0.29 0.29 0.28 0.27 0.26 0.26 0.27 0.27 0.28 0.28 0.28 0.28 0.28 0.27 0.27 0.27 0.27 0.27 0.28 0.28 0.30 0.31 0.31 0.31 0.31 0.30 0.30 0.30 0.30 0.30 0.29 0.29 0.29 0.29 0.31 0.31 0.31 0.30 0.29 0.29 0.28 0.27 0.26 0.25 0.24
0.29 0.30 0.32 0.32 0.31 0.32 0.33 0.33 0.34 0.33 0.33 0.33 0.32 0.32 0.32 0.32 0.32 0.31 0.30 0.29 0.28 0.28 0.27 0.27 0.27 0.26 0.27 0.27 0.27 0.28 0.27 0.27 0.27 0.27 0.27 0.27 0.27 0.27 0.28 0.29 0.31 0.32 0.32 0.32 0.31 0.30 0.30 0.31 0.30 0.29 0.29 0.30 0.31 0.31 0.30 0.30 0.29 0.29 0.28 0.27 0.26 0.25 0.25
0.29 0.30 0.31 0.32 0.32 0.32 0.33 0.33 0.34 0.34 0.33 0.33 0.33 0.32 0.32 0.31 0.30 0.30 0.29 0.28 0.28 0.28 0.28 0.28 0.27 0.27 0.26 0.27 0.28 0.28 0.27 0.27 0.27 0.26 0.26 0.26 0.25 0.25 0.26 0.28 0.29 0.31 0.32 0.32 0.32 0.31 0.30 0.31 0.32 0.30 0.30 0.31 0.32 0.30 0.30 0.30 0.29 0.29 0.28 0.27 0.26 0.26 0.26
0.30 0.31 0.32 0.32 0.32 0.31 0.30 0.31 0.31 0.31 0.31 0.31 0.30 0.30 0.30 0.29 0.29 0.28 0.28 0.28 0.29 0.29 0.29 0.29 0.29 0.29 0.28 0.28 0.27 0.27 0.28 0.27 0.27 0.26 0.25 0.25 0.25 0.25 0.26 0.26 0.27 0.29 0.31 0.31 0.32 0.32 0.32 0.32 0.32 0.32 0.32 0.32 0.32 0.31 0.31 0.31 0.30 0.29 0.28 0.28 0.28 0.27 0.26
0.31 0.31 0.30 0.29 0.29 0.27 0.26 0.27 0.28 0.28 0.28 0.28 0.28 0.28 0.29 0.28 0.28 0.28 0.28 0.28 0.29 0.30 0.30 0.30 0.30 0.29 0.28 0.28 0.27 0.28 0.29 0.29 0.28 0.27 0.25 0.24 0.24 0.24 0.25 0.26 0.27 0.29 0.31 0.32 0.32 0.32 0.32 0.33 0.33 0.33 0.33 0.32 0.32 0.31 0.31 0.31 0.30 0.30 0.28 0.26 0.25 0.24 0.24
0.28 0.29 0.28 0.28 0.27 0.26 0.25 0.26 0.27 0.28 0.28 0.29 0.30 0.30 0.29 0.29 0.29 0.28 0.27 0.27 0.28 0.29 0.29 0.29 0.29 0.29 0.28 0.28 0.28 0.29 0.29 0.29 0.28 0.27 0.25 0.25 0.24 0.24 0.24 0.25 0.27 0.28 0.30 0.31 0.32 0.32 0.32 0.32 0.33 0.33 0.32 0.32 0.32 0.31 0.31 0.30 0.28 0.27 0.26 0.25 0.23 0.23 0.22
0.28 0.28 0.28 0.28 0.27 0.28 0.27 0.27 0.29 0.29 0.30 0.30 0.30 0.31 0.30 0.30 0.29 0.27 0.27 0.27 0.28 0.29 0.29 0.29 0.29 0.29 0.29 0.29 0.29 0.30 0.30 0.29 0.28 0.26 0.26 0.25 0.24 0.23 0.22 0.23 0.25 0.26 0.28 0.30 0.31 0.32 0.32 0.32 0.32 0.32 0.32 0.32 0.32 0.31 0.30 0.28 0.26 0.26 0.26 0.24 0.23 0.21 0.20
0.27 0.27 0.28 0.29 0.29 0.29 0.29 0.29 0.30 0.31 0.32 0.32 0.32 0.32 0.32 0.31 0.29 0.28 0.28 0.27 0.28 0.29 0.29 0.29 0.30 0.30 0.30 0.30 0.30 0.30 0.30 0.29 0.28 0.27 0.26 0.25 0.24 0.22 0.22 0.23 0.25 0.25 0.26 0.27 0.29 0.30 0.30 0.30 0.31 0.31 0.31 0.31 0.31 0.30 0.30 0.29 0.27 0.27 0.25 0.23 0.21 0.19 0.18
0.26 0.26 0.27 0.29 0.30 0.31 0.31 0.31 0.31 0.33 0.32 0.32 0.31 0.31 0.31 0.31 0.29 0.28 0.27 0.28 0.28 0.28 0.29 0.30 0.30 0.31 0.30 0.30 0.30 0.29 0.29 0.29 0.28 0.27 0.26 0.26 0.24 0.22 0.21 0.24 0.25 0.25 0.26 0.27 0.28 0.28 0.29 0.29 0.30 0.30 0.31 0.31 0.30 0.30 0.29 0.29 0.28 0.26 0.24 0.22 0.19 0.18 0.17
0.28 0.28 0.29 0.30 0.30 0.30 0.31 0.32 0.31 0.31 0.31 0.30 0.30 0.31 0.31 0.30 0.30 0.29 0.29 0.29 0.28 0.28 0.28 0.28 0.28 0.29 0.30 0.29 0.29 0.28 0.28 0.28 0.28 0.27 0.26 0.26 0.24 0.24 0.24 0.25 0.24 0.26 0.26 0.26 0.27 0.27 0.27 0.27 0.27 0.28 0.28 0.28 0.28 0.28 0.28 0.27 0.26 0.25 0.23 0.20 0.18 0.17 0.16
0.29 0.29 0.29 0.29 0.29 0.29 0.30 0.31 0.31 0.31 0.31 0.31 0.31 0.31 0.32 0.31 0.31 0.31 0.30 0.28 0.27 0.27 0.27 0.27 0.28 0.28 0.29 0.29 0.28 0.27 0.27 0.27 0.27 0.27 0.26 0.25 0.25 0.25 0.25 0.24 0.25 0.26 0.25 0.25 0.25 0.26 0.26 0.26 0.26 0.26 0.26 0.27 0.27 0.27 0.26 0.25 0.23 0.22 0.20 0.18 0.17 0.15 0.14
0.28 0.28 0.27 0.27 0.27 0.29 0.29 0.29 0.30 0.31 0.31 0.31 0.31 0.32 0.32 0.32 0.32 0.32 0.30 0.28 0.26 0.26 0.27 0.28 0.28 0.28 0.28 0.28 0.27 0.27 0.27 0.27 0.26 0.26 0.25 0.25 0.25 0.25 0.25 0.25 0.25 0.25 0.25 0.24 0.24 0.24 0.24 0.25 0.25 0.25 0.25 0.25 0.25 0.24 0.23 0.21 0.19 0.17 0.16 0.15 0.15 0.14 0.14
0.28 0.27 0.25 0.25 0.25 0.27 0.27 0.28 0.29 0.30 0.30 0.30 0.31 0.31 0.31 0.32 0.32 0.31 0.30 0.29 0.28 0.28 0.28 0.27 0.27 0.28 0.27 0.27 0.27 0.27 0.27 0.27 0.27 0.26 0.25 0.25 0.25 0.25 0.25 0.25 0.24 0.24 0.24 0.23 0.23 0.23 0.24 0.24 0.24 0.24 0.24 0.24 0.23 0.21 0.19 0.17 0.16 0.15 0.15 0.15 0.14 0.14 0.13
0.25 0.25 0.24 0.24 0.24 0.25 0.26 0.28 0.29 0.30 0.30 0.30 0.31 0.31 0.31 0.32 0.31 0.31 0.30 0.29 0.29 0.28 0.28 0.28 0.28 0.27 0.27 0.27 0.27 0.27 0.26 0.27 0.27 0.26 0.25 0.25 0.25 0.25 0.25 0.24 0.24 0.23 0.23 0.22 0.22 0.23 0.23 0.23 0.23 0.24 0.23 0.22 0.20 0.17 0.16 0.15 0.15 0.15 0.14 0.14 0.14 0.13 0.13
0.25 0.25 0.25 0.24 0.24 0.25 0.26 0.27 0.28 0.29 0.29 0.30 0.31 0.31 0.31 0.31 0.31 0.31 0.30 0.29 0.29 0.28 0.28 0.28 0.28 0.27 0.27 0.27 0.27 0.27 0.26 0.26 0.26 0.26 0.25 0.25 0.25 0.24 0.24 0.24 0.23 0.23 0.22 0.22 0.22 0.22 0.22 0.22 0.22 0.22 0.20 0.18 0.16 0.15 0.14 0.14 0.14 0.14 0.13 0.13 0.13 0.12 0.12
0.24 0.24 0.24 0.24 0.25 0.25 0.26 0.26 0.27 0.28 0.29 0.30 0.30 0.30 0.31 0.31 0.30 0.30 0.29 0.29 0.28 0.28 0.28 0.27 0.27 0.27 0.27 0.27 0.27 0.27 0.27 0.26 0.26 0.25 0.24 0.24 0.24 0.24 0.24 0.24 0.23 0.23 0.22 0.22 0.22 0.22 0.22 0.22 0.21 0.19 0.17 0.15 0.14 0.14 0.14 0.14 0.14 0.13 0.13 0.12 0.12 0.11 0.11
0.24 0.24 0.24 0.24 0.24 0.24 0.24 0.25 0.26 0.27 0.28 0.29 0.29 0.30 0.31 0.30 0.29 0.29 0.28 0.28 0.28 0.28 0.28 0.27 0.27 0.27 0.27 0.26 0.26 0.26 0.25 0.25 0.24 0.24 0.23 0.23 0.23 0.23 0.24 0.24 0.24 0.23 0.23 0.22 0.22 0.22 0.21 0.19 0.17 0.15 0.14 0.14 0.14 0.14 0.14 0.14 0.13 0.12 0.12 0.12 0.11 0.11 0.10
0.25 0.25 0.25 0.25 0.24 0.23 0.23 0.24 0.25 0.27 0.29 0.29 0.30 0.30 0.29 0.29 0.29 0.29 0.28 0.28 0.28 0.28 0.27 0.26 0.25 0.25 0.25 0.24 0.23 0.23 0.23 0.23 0.23 0.22 0.23 0.22 0.23 0.23 0.23 0.22 0.22 0.21 0.21 0.21 0.21 0.19 0.17 0.16 0.15 0.14 0.14 0.14 0.13 0.13 0.13 0.13 0.12 0.12 0.11 0.11 0.11 0.10 0.10
0.25 0.25 0.26 0.25 0.25 0.25 0.24 0.24 0.27 0.29 0.30 0.30 0.30 0.31 0.30 0.30 0.30 0.29 0.29 0.28 0.28 0.27 0.25 0.25 0.24 0.24 0.23 0.23 0.23 0.22 0.22 0.22 0.22 0.21 0.21 0.22 0.22 0.22 0.22 0.21 0.21 0.21 0.20 0.19 0.18 0.16 0.15 0.14 0.14 0.13 0.13 0.13 0.13 0.12 0.12 0.12 0.12 0.11 0.11 0.10 0.10 0.10 0.09
0.27 0.27 0.28 0.27 0.25 0.26 0.27 0.28 0.29 0.29 0.30 0.30 0.31 0.31 0.30 0.30 0.30 0.29 0.29 0.28 0.27 0.25 0.24 0.23 0.23 0.23 0.23 0.22 0.22 0.22 0.21 0.22 0.21 0.21 0.21 0.21 0.21 0.21 0.20 0.20 0.19 0.19 0.18 0.16 0.15 0.14 0.14 0.13 0.13 0.12 0.12 0.12 0.12 0.11 0.11 0.11 0.11 0.11 0.10 0.10 0.10 0.10 0.10
0.28 0.28 0.28 0.28 0.27 0.27 0.27 0.29 0.29 0.29 0.30 0.30 0.31 0.31 0.30 0.30 0.30 0.29 0.29 0.28 0.27 0.24 0.24 0.23 0.23 0.22 0.22 0.22 0.22 0.22 0.22 0.21 0.21 0.21 0.21 0.21 0.20 0.19 0.19 0.18 0.17 0.16 0.15 0.14 0.13 0.13 0.12 0.12 0.12 0.12 0.12 0.11 0.11 0.11 0.11 0.11 0.10 0.10 0.10 0.10 0.10 0.10 0.10
0.28 0.28 0.28 0.27 0.27 0.28 0.28 0.28 0.28 0.29 0.29 0.30 0.31 0.31 0.30 0.30 0.30 0.29 0.28 0.27 0.25 0.24 0.23 0.23 0.23 0.22 0.22 0.22 0.21 0.22 0.21 0.21 0.21 0.21 0.21 0.20 0.19 0.18 0.18 0.17 0.15 0.14 0.13 0.12 0.12 0.12 0.12 0.11 0.11 0.11 0.11 0.11 0.11 0.11 0.10 0.11 0.10 0.11 0.11 0.10 0.10 0.10 0.10
0.27 0.28 0.28 0.27 0.27 0.27 0.28 0.28 0.29 0.29 0.29 0.30 0.30 0.30 0.30 0.30 0.29 0.29 0.28 0.26 0.24 0.24 0.23 0.23 0.22 0.22 0.22 0.22 0.22 0.22 0.22 0.21 0.21 0.21 0.21 0.20 0.20 0.18 0.17 0.14 0.13 0.12 0.12 0.12 0.12 0.11 0.11 0.11 0.11 0.11 0.11 0.11 0.11 0.11 0.11 0.11 0.10 0.10 0.10 0.10 0.10 0.10 0.10
0.25 0.27 0.28 0.27 0.27 0.27 0.27 0.28 0.28 0.29 0.29 0.29 0.30 0.30 0.29 0.29 0.27 0.25 0.25 0.25 0.25 0.24 0.23 0.23 0.22 0.22 0.22 0.22 0.22 0.22 0.22 0.21 0.21 0.21 0.20 0.20 0.19 0.17 0.14 0.12 0.12 0.12 0.12 0.12 0.12 0.12 0.12 0.12 0.12 0.12 0.12 0.11 0.11 0.11 0.10 0.10 0.10 0.10 0.10 0.10 0.10 0.10 0.10
0.25 0.26 0.27 0.28 0.28 0.28 0.27 0.27 0.28 0.28 0.28 0.28 0.29 0.29 0.28 0.25 0.24 0.24 0.24 0.24 0.24 0.24 0.24 0.23 0.23 0.22 0.22 0.22 0.22 0.22 0.22 0.21 0.21 0.21 0.20 0.20 0.18 0.15 0.13 0.12 0.13 0.13 0.12 0.12 0.12 0.12 0.12 0.12 0.12 0.12 0.11 0.11 0.11 0.11 0.10 0.10 0.10 0.10 0.11 0.10 0.10 0.10 0.10

ECMWFFLT1_prec_pwat_030.txt.gz
Precipitable_Water
0.26 0.27 0.28 0.28 0.28 0.29 0.29 0.30 0.30 0.31 0.31 0.31 0.30 0.31 0.30 0.30 0.30 0.29 0.29 0.30 0.31 0.33 0.33 0.31 0.31 0.33 0.36 0.40 0.41 0.43 0.44 0.45 0.46 0.47 0.47 0.47 0.46 0.44 0.44 0.43 0.40 0.38 0.37 0.40 0.42 0.41 0.41 0.43 0.43 0.42 0.44 0.42 0.43 0.44 0.44 0.43 0.41 0.40 0.39 0.38 0.37 0.36 0.35
0.26 0.27 0.28 0.28 0.29 0.29 0.30 0.30 0.31 0.31 0.31 0.30 0.29 0.29 0.31 0.30 0.30 0.29 0.28 0.29 0.29 0.31 0.32 0.32 0.30 0.31 0.34 0.38 0.40 0.41 0.42 0.43 0.44 0.45 0.45 0.45 0.45 0.44 0.43 0.44 0.41 0.39 0.38 0.38 0.41 0.41 0.42 0.43 0.44 0.41 0.43 0.42 0.42 0.42 0.43 0.42 0.41 0.40 0.39 0.38 0.37 0.36 0.35
0.26 0.26 0.27 0.28 0.29 0.29 0.30 0.31 0.31 0.32 0.32 0.31 0.30 0.29 0.29 0.29 0.29 0.28 0.28 0.28 0.28 0.29 0.31 0.32 0.31 0.30 0.32 0.36 0.38 0.40 0.41 0.43 0.43 0.44 0.44 0.43 0.44 0.43 0.44 0.44 0.44 0.41 0.39 0.39 0.40 0.42 0.42 0.42 0.43 0.43 0.44 0.44 0.43 0.43 0.43 0.41 0.41 0.40 0.40 0.39 0.38 0.37 0.36
0.25 0.25 0.27 0.27 0.28 0.29 0.30 0.31 0.31 0.32 0.32 0.32 0.31 0.29 0.29 0.29 0.29 0.29 0.28 0.28 0.28 0.28 0.29 0.30 0.30 0.29 0.31 0.34 0.35 0.37 0.39 0.41 0.42 0.42 0.43 0.43 0.43 0.43 0.43 0.44 0.44 0.43 0.41 0.41 0.39 0.40 0.41 0.42 0.42 0.43 0.44 0.45 0.44 0.43 0.41 0.41 0.41 0.41 0.39 0.39 0.39 0.38 0.37
0.24 0.26 0.26 0.25 0.25 0.27 0.28 0.28 0.29 0.30 0.31 0.31 0.31 0.30 0.29 0.28 0.28 0.28 0.29 0.29 0.29 0.29 0.30 0.31 0.30 0.29 0.30 0.32 0.33 0.36 0.37 0.39 0.39 0.40 0.41 0.41 0.42 0.42 0.42 0.42 0.43 0.43 0.42 0.40 0.39 0.39 0.40 0.40 0.41 0.42 0.42 0.43 0.42 0.42 0.40 0.40 0.40 0.40 0.39 0.39 0.39 0.39 0.38
0.24 0.24 0.23 0.24 0.24 0.25 0.26 0.27 0.28 0.28 0.28 0.29 0.29 0.29 0.28 0.27 0.27 0.27 0.28 0.29 0.29 0.30 0.30 0.31 0.32 0.31 0.31 0.31 0.31 0.33 0.36 0.37 0.38 0.39 0.39 0.40 0.41 0.42 0.42 0.41 0.40 0.41 0.41 0.40 0.38 0.38 0.37 0.38 0.39 0.39 0.40 0.41 0.42 0.40 0.39 0.39 0.39 0.40 0.40 0.39 0.38 0.38 0.37
0.21 0.22 0.22 0.23 0.23 0.24 0.25 0.26 0.27 0.27 0.27 0.27 0.27 0.28 0.27 0.26 0.26 0.26 0.27 0.29 0.29 0.29 0.30 0.31 0.31 0.32 0.32 0.30 0.30 0.30 0.32 0.35 0.37 0.38 0.38 0.39 0.39 0.41 0.40 0.39 0.39 0.39 0.38 0.38 0.37 0.37 0.37 0.37 0.38 0.38 0.37 0.40 0.41 0.40 0.39 0.38 0.37 0.38 0.39 0.39 0.38 0.37 0.37
0.20 0.21 0.22 0.22 0.23 0.24 0.24 0.25 0.25 0.25 0.26 0.26 0.26 0.26 0.26 0.26 0.25 0.25 0.27 0.29 0.30 0.29 0.29 0.30 0.30 0.31 0.32 0.31 0.30 0.29 0.30 0.33 0.34 0.36 0.36 0.38 0.39 0.39 0.39 0.38 0.38 0.38 0.37 0.37 0.36 0.35 0.35 0.36 0.36 0.36 0.37 0.37 0.38 0.37 0.37 0.38 0.37 0.36 0.37 0.38 0.38 0.37 0.36
0.20 0.20 0.21 0.22 0.22 0.23 0.24 0.24 0.24 0.24 0.25 0.25 0.25 0.26 0.25 0.25 0.25 0.25 0.27 0.29 0.30 0.30 0.29 0.29 0.30 0.30 0.32 0.32 0.30 0.30 0.30 0.31 0.33 0.34 0.34 0.36 0.38 0.38 0.37 0.37 0.37 0.37 0.37 0.36 0.35 0.34 0.34 0.34 0.35 0.35 0.35 0.35 0.35 0.35 0.35 0.37 0.37 0.36 0.37 0.37 0.36 0.36 0.36
0.20 0.21 0.21 0.21 0.22 0.22 0.23 0.23 0.24 0.24 0.24 0.25 0.26 0.26 0.26 0.25 0.25 0.26 0.28 0.29 0.30 0.30 0.29 0.29 0.29 0.29 0.30 0.31 0.31 0.31 0.30 0.30 0.31 0.33 0.34 0.34 0.35 0.36 0.36 0.36 0.35 0.35 0.35 0.35 0.34 0.33 0.33 0.32 0.32 0.33 0.34 0.35 0.36 0.36 0.36 0.35 0.35 0.35 0.35 0.35 0.35 0.34 0.34
0.21 0.21 0.22 0.22 0.22 0.22 0.22 0.23 0.23 0.24 0.24 0.25 0.26 0.27 0.27 0.26 0.26 0.27 0.29 0.30 0.30 0.30 0.29 0.30 0.30 0.29 0.29 0.29 0.29 0.30 0.30 0.30 0.30 0.31 0.32 0.33 0.34 0.35 0.35 0.34 0.34 0.34 0.35 0.34 0.33 0.34 0.33 0.32 0.32 0.33 0.34 0.34 0.35 0.36 0.35 0.35 0.35 0.34 0.34 0.33 0.32 0.31 0.33
0.22 0.22 0.23 0.23 0.24 0.23 0.23 0.23 0.23 0.24 0.25 0.26 0.27 0.28 0.28 0.28 0.27 0.28 0.30 0.31 0.31 0.31 0.31 0.30 0.30 0.30 0.29 0.29 0.29 0.29 0.30 0.29 0.29 0.29 0.30 0.32 0.32 0.32 0.34 0.34 0.33 0.32 0.32 0.33 0.32 0.32 0.33 0.32 0.31 0.32 0.32 0.33 0.33 0.34 0.34 0.34 0.34 0.34 0.33 0.33 0.32 0.32 0.31
0.22 0.23 0.24 0.24 0.24 0.24 0.25 0.25 0.25 0.26 0.28 0.29 0.30 0.30 0.31 0.31 0.31 0.31 0.31 0.31 0.31 0.31 0.31 0.30 0.30 0.29 0.29 0.30 0.30 0.30 0.30 0.29 0.28 0.28 0.29 0.30 0.31 0.31 0.31 0.31 0.32 0.33 0.32 0.32 0.32 0.31 0.31 0.32 0.32 0.31 0.32 0.32 0.33 0.33 0.32 0.32 0.32 0.33 0.33 0.33 0.32 0.32 0.32
0.22 0.23 0.24 0.24 0.25 0.25 0.26 0.27 0.28 0.29 0.29 0.30 0.32 0.32 0.33 0.33 0.33 0.32 0.32 0.32 0.32 0.32 0.31 0.31 0.30 0.29 0.29 0.29 0.30 0.30 0.30 0.29 0.28 0.28 0.28 0.28 0.28 0.29 0.30 0.30 0.31 0.31 0.31 0.31 0.30 0.30 0.29 0.31 0.32 0.30 0.31 0.33 0.33 0.32 0.31 0.31 0.31 0.31 0.31 0.31 0.30 0.31 0.31
0.22 0.23 0.24 0.25 0.26 0.26 0.27 0.28 0.30 0.31 0.32 0.32 0.33 0.33 0.33 0.34 0.33 0.33 0.32 0.32 0.33 0.33 0.32 0.32 0.31 0.31 0.30 0.30 0.30 0.30 0.30 0.28 0.28 0.27 0.27 0.26 0.26 0.27 0.28 0.29 0.29 0.29 0.29 0.30 0.30 0.29 0.29 0.30 0.32 0.32 0.32 0.32 0.32 0.32 0.33 0.32 0.31 0.31 0.31 0.31 0.31 0.31 0.31
0.23 0.24 0.25 0.25 0.26 0.26 0.27 0.29 0.31 0.32 0.33 0.33 0.33 0.33 0.33 0.33 0.33 0.33 0.33 0.33 0.33 0.33 0.33 0.33 0.33 0.32 0.31 0.30 0.30 0.30 0.31 0.29 0.28 0.27 0.26 0.25 0.25 0.26 0.27 0.27 0.28 0.29 0.30 0.29 0.29 0.29 0.29 0.30 0.31 0.31 0.31 0.30 0.30 0.30 0.31 0.31 0.31 0.31 0.30 0.29 0.28 0.28 0.29
0.23 0.24 0.25 0.25 0.26 0.26 0.27 0.28 0.30 0.31 0.32 0.32 0.32 0.33 0.33 0.32 0.31 0.31 0.30 0.30 0.31 0.32 0.33 0.33 0.33 0.32 0.32 0.31 0.31 0.31 0.31 0.31 0.31 0.28 0.27 0.26 0.25 0.26 0.26 0.25 0.27 0.28 0.28 0.28 0.28 0.28 0.28 0.29 0.29 0.30 0.30 0.30 0.29 0.29 0.29 0.29 0.28 0.28 0.29 0.28 0.27 0.27 0.28
0.22 0.23 0.24 0.24 0.25 0.26 0.26 0.27 0.29 0.30 0.31 0.31 0.31 0.31 0.30 0.30 0.29 0.29 0.28 0.29 0.29 0.30 0.30 0.30 0.30 0.31 0.31 0.31 0.31 0.31 0.31 0.32 0.31 0.29 0.28 0.27 0.26 0.25 0.25 0.26 0.28 0.28 0.28 0.29 0.29 0.28 0.28 0.28 0.28 0.28 0.28 0.29 0.28 0.28 0.28 0.27 0.26 0.28 0.28 0.27 0.27 0.27 0.27
0.23 0.23 0.24 0.25 0.25 0.27 0.27 0.27 0.29 0.30 0.31 0.31 0.31 0.31 0.31 0.30 0.29 0.27 0.27 0.27 0.27 0.28 0.28 0.29 0.29 0.29 0.29 0.28 0.28 0.29 0.29 0.30 0.30 0.29 0.28 0.27 0.27 0.26 0.25 0.26 0.28 0.27 0.27 0.27 0.27 0.27 0.27 0.27 0.27 0.27 0.27 0.27 0.27 0.27 0.27 0.27 0.26 0.27 0.27 0.26 0.27 0.27 0.27
0.22 0.23 0.25 0.27 0.26 0.26 0.27 0.28 0.29 0.30 0.30 0.30 0.30 0.29 0.29 0.29 0.28 0.27 0.28 0.28 0.28 0.28 0.29 0.29 0.29 0.30 0.30 0.29 0.29 0.28 0.29 0.29 0.29 0.29 0.29 0.28 0.27 0.25 0.24 0.28 0.28 0.28 0.27 0.27 0.27 0.27 0.27 0.26 0.27 0.27 0.27 0.26 0.26 0.26 0.25 0.25 0.26 0.26 0.26 0.26 0.26 0.26 0.26
0.24 0.24 0.25 0.26 0.26 0.25 0.26 0.27 0.27 0.28 0.29 0.28 0.27 0.28 0.28 0.27 0.27 0.28 0.28 0.28 0.28 0.28 0.27 0.27 0.28 0.30 0.30 0.30 0.30 0.29 0.29 0.29 0.29 0.29 0.29 0.28 0.27 0.27 0.27 0.29 0.27 0.27 0.27 0.27 0.27 0.27 0.26 0.26 0.26 0.26 0.26 0.26 0.25 0.24 0.24 0.24 0.25 0.25 0.26 0.25 0.25 0.25 0.25
0.23 0.23 0.24 0.25 0.24 0.24 0.24 0.26 0.28 0.27 0.28 0.28 0.28 0.28 0.28 0.27 0.27 0.28 0.28 0.27 0.27 0.28 0.28 0.28 0.28 0.29 0.30 0.31 0.30 0.31 0.30 0.30 0.30 0.30 0.30 0.28 0.28 0.28 0.28 0.27 0.27 0.27 0.27 0.27 0.27 0.26 0.25 0.25 0.24 0.24 0.24 0.24 0.24 0.24 0.23 0.23 0.24 0.24 0.25 0.25 0.25 0.25 0.24
0.22 0.22 0.23 0.24 0.24 0.24 0.24 0.25 0.27 0.27 0.27 0.27 0.27 0.27 0.27 0.28 0.28 0.29 0.30 0.29 0.28 0.28 0.29 0.30 0.30 0.30 0.30 0.30 0.31 0.31 0.31 0.31 0.31 0.31 0.31 0.30 0.30 0.30 0.30 0.29 0.28 0.27 0.26 0.25 0.25 0.24 0.23 0.23 0.23 0.23 0.23 0.23 0.23 0.23 0.23 0.23 0.23 0.23 0.24 0.24 0.25 0.25 0.25
0.21 0.21 0.22 0.22 0.22 0.23 0.24 0.25 0.25 0.26 0.26 0.26 0.27 0.27 0.27 0.28 0.29 0.30 0.30 0.30 0.29 0.30 0.30 0.30 0.30 0.31 0.31 0.32 0.32 0.32 0.32 0.32 0.33 0.32 0.32 0.32 0.31 0.30 0.29 0.28 0.27 0.26 0.25 0.24 0.24 0.23 0.22 0.22 0.22 0.22 0.22 0.23 0.23 0.23 0.23 0.22 0.22 0.23 0.23 0.23 0.24 0.24 0.24
0.21 0.21 0.21 0.22 0.21 0.22 0.23 0.24 0.24 0.24 0.25 0.26 0.27 0.27 0.28 0.29 0.30 0.31 0.31 0.30 0.30 0.30 0.30 0.30 0.30 0.30 0.31 0.31 0.31 0.32 0.32 0.32 0.32 0.32 0.32 0.32 0.31 0.30 0.29 0.28 0.27 0.26 0.25 0.24 0.23 0.23 0.22 0.22 0.22 0.22 0.23 0.23 0.24 0.24 0.23 0.22 0.21 0.22 0.22 0.22 0.23 0.23 0.22
0.21 0.21 0.22 0.22 0.22 0.22 0.23 0.24 0.24 0.24 0.25 0.26 0.27 0.27 0.29 0.31 0.31 0.31 0.31 0.30 0.29 0.29 0.29 0.29 0.29 0.29 0.30 0.30 0.30 0.30 0.30 0.30 0.30 0.30 0.30 0.30 0.29 0.28 0.28 0.27 0.26 0.25 0.24 0.23 0.23 0.22 0.22 0.22 0.22 0.22 0.22 0.23 0.23 0.23 0.22 0.21 0.20 0.20 0.20 0.21 0.21 0.20 0.20
0.22 0.22 0.22 0.22 0.22 0.22 0.23 0.23 0.24 0.24 0.25 0.27 0.27 0.29 0.30 0.31 0.30 0.30 0.30 0.29 0.29 0.29 0.28 0.28 0.28 0.28 0.29 0.29 0.29 0.29 0.29 0.29 0.29 0.29 0.28 0.28 0.28 0.27 0.27 0.26 0.24 0.23 0.23 0.22 0.22 0.21 0.21 0.21 0.22 0.22 0.22 0.22 0.22 0.21 0.21 0.20 0.19 0.19 0.19 0.19 0.19 0.18 0.18
0.22 0.22 0.23 0.23 0.23 0.23 0.23 0.23 0.23 0.24 0.25 0.26 0.27 0.29 0.29 0.29 0.29 0.28 0.28 0.28 0.28 0.28 0.28 0.28 0.28 0.28 0.28 0.27 0.27 0.27 0.27 0.27 0.27 0.26 0.26 0.26 0.26 0.25 0.25 0.24 0.24 0.24 0.23 0.22 0.21 0.21 0.21 0.21 0.21 0.21 0.21 0.21 0.21 0.20 0.19 0.19 0.19 0.19 0.18 0.18 0.17 0.17 0.17
0.24 0.25 0.25 0.25 0.25 0.24 0.23 0.23 0.23 0.24 0.27 0.28 0.29 0.29 0.29 0.28 0.28 0.27 0.27 0.27 0.28 0.27 0.27 0.27 0.26 0.25 0.25 0.24 0.24 0.24 0.24 0.24 0.24 0.24 0.25 0.24 0.24 0.23 0.23 0.22 0.22 0.21 0.21 0.21 0.21 0.20 0.20 0.20 0.20 0.20 0.20 0.20 0.19 0.19 0.18 0.18 0.18 0.17 0.17 0.17 0.17 0.17 0.17
0.25 0.26 0.26 0.26 0.27 0.27 0.25 0.24 0.25 0.27 0.28 0.29 0.29 0.30 0.29 0.29 0.29 0.28 0.28 0.28 0.28 0.27 0.25 0.24 0.24 0.23 0.23 0.22 0.22 0.22 0.22 0.22 0.23 0.22 0.22 0.22 0.22 0.21 0.21 0.21 0.21 0.21 0.21 0.21 0.21 0.20 0.20 0.20 0.20 0.19 0.19 0.19 0.18 0.17 0.17 0.17 0.17 0.16 0.16 0.16 0.16 0.16 0.16
0.27 0.27 0.27 0.27 0.26 0.28 0.28 0.28 0.28 0.28 0.29 0.29 0.30 0.30 0.29 0.29 0.29 0.29 0.28 0.28 0.26 0.25 0.24 0.23 0.22 0.22 0.22 0.22 0.22 0.22 0.22 0.22 0.22 0.21 0.21 0.20 0.20 0.21 0.21 0.21 0.20 0.20 0.20 0.20 0.20 0.20 0.20 0.20 0.19 0.19 0.18 0.17 0.17 0.17 0.17 0.16 0.16 0.16 0.16 0.16 0.15 0.15 0.15
0.27 0.27 0.27 0.27 0.28 0.28 0.28 0.28 0.28 0.29 0.29 0.29 0.30 0.29 0.29 0.29 0.29 0.28 0.28 0.27 0.26 0.24 0.23 0.23 0.22 0.22 0.22 0.22 0.21 0.21 0.22 0.22 0.21 0.21 0.20 0.20 0.20 0.20 0.20 0.20 0.20 0.21 0.20 0.20 0.19 0.19 0.18 0.18 0.18 0.18 0.18 0.18 0.18 0.17 0.16 0.16 0.16 0.15 0.15 0.15 0.15 0.14 0.14
0.26 0.27 0.27 0.27 0.28 0.29 0.28 0.28 0.29 0.29 0.30 0.30 0.30 0.30 0.29 0.29 0.28 0.28 0.27 0.26 0.24 0.23 0.22 0.22 0.22 0.22 0.21 0.22 0.21 0.21 0.21 0.21 0.21 0.21 0.20 0.20 0.20 0.20 0.20 0.20 0.21 0.21 0.20 0.20 0.20 0.20 0.19 0.19 0.19 0.19 0.19 0.18 0.17 0.16 0.15 0.15 0.15 0.15 0.14 0.14 0.14 0.13 0.13
0.25 0.26 0.27 0.27 0.27 0.28 0.29 0.29 0.29 0.29 0.30 0.30 0.29 0.29 0.28 0.28 0.27 0.27 0.27 0.25 0.23 0.23 0.22 0.22 0.22 0.22 0.21 0.21 0.21 0.21 0.21 0.21 0.21 0.21 0.20 0.20 0.20 0.20 0.20 0.20 0.21 0.20 0.20 0.20 0.20 0.20 0.20 0.20 0.19 0.19 0.18 0.17 0.16 0.16 0.15 0.14 0.14 0.14 0.13 0.13 0.13 0.12 0.12
0.23 0.25 0.27 0.27 0.27 0.28 0.28 0.28 0.28 0.28 0.28 0.29 0.29 0.28 0.27 0.27 0.25 0.23 0.23 0.24 0.23 0.23 0.22 0.22 0.21 0.21 0.21 0.21 0.21 0.21 0.21 0.21 0.21 0.21 0.20 0.20 0.20 0.20 0.20 0.20 0.20 0.20 0.20 0.20 0.20 0.20 0.19 0.19 0.19 0.18 0.17 0.16 0.15 0.14 0.14 0.13 0.13 0.13 0.12 0.12 0.11 0.11 0.11
0.21 0.23 0.25 0.26 0.27 0.28 0.28 0.29 0.28 0.28 0.28 0.28 0.28 0.27 0.26 0.23 0.22 0.22 0.22 0.22 0.22 0.22 0.22 0.22 0.22 0.22 0.21 0.21 0.21 0.21 0.21 0.21 0.21 0.21 0.21 0.20 0.20 0.20 0.20 0.20 0.20 0.20 0.20 0.20 0.20 0.19 0.19 0.19 0.17 0.16 0.15 0.14 0.14 0.13 0.13 0.12 0.12 0.11 0.11 0.11 0.11 0.11 0.11